GFSFLT2_925_temp_000.txt.gz
Temp
1 0 -0 -0 -0 -1 -1 -1 -1 -0 0 0 1 1 1 2 2 2 3 3 3 4 4 5 5 6 6
-1 -1 -1 -1 -1 -2 -2 -2 -2 -1 -1 -0 0 1 1 1 1 2 1 0 1 2 3 3 4 4 4
-1 -1 -1 -2 -3 -2 -2 -2 -2 -2 -1 -1 -1 -0 -0 -0 -1 -0 0 1 2 2 3 3 3 4 5
-2 -2 -2 -2 -3 -3 -3 -3 -3 -3 -3 -2 -2 -2 -1 -1 -1 -1 -1 -0 1 1 2 2 2 2 3
-2 -2 -3 -3 -3 -3 -4 -3 -3 -4 -3 -3 -3 -3 -3 -3 -2 -2 -2 -1 0 0 1 1 2 2 2
-3 -3 -3 -3 -4 -4 -4 -4 -4 -4 -3 -4 -4 -4 -4 -3 -3 -2 -1 -1 -0 0 0 0 1 1 2
-3 -4 -4 -4 -5 -4 -5 -5 -5 -4 -5 -4 -4 -4 -4 -4 -3 -3 -2 -1 -1 -1 -1 -0 0 1 2
-3 -4 -4 -4 -4 -4 -5 -5 -5 -5 -5 -5 -4 -5 -5 -4 -4 -3 -3 -2 -1 -1 -1 -1 -1 -0 -0
-4 -4 -4 -4 -5 -5 -5 -6 -6 -5 -5 -5 -5 -5 -5 -5 -4 -4 -3 -2 -1 -2 -1 -1 -1 -0 -0
-6 -6 -6 -6 -5 -6 -6 -6 -6 -6 -5 -6 -6 -5 -5 -4 -3 -4 -4 -3 -3 -2 -2 -2 -1 -1 -2
-6 -6 -6 -6 -6 -7 -7 -7 -6 -6 -6 -5 -5 -5 -5 -5 -4 -4 -4 -4 -4 -5 -4 -4 -3 -2 -2
-6 -6 -6 -7 -7 -7 -7 -7 -7 -7 -6 -6 -5 -5 -5 -5 -5 -4 -5 -6 -5 -5 -4 -4 -3 -2 -2
-6 -7 -7 -7 -7 -7 -7 -7 -7 -6 -6 -5 -6 -6 -5 -5 -5 -6 -6 -5 -5 -4 -3 -3 -2 -2 -2
-7 -7 -7 -7 -7 -7 -7 -7 -6 -5 -5 -5 -5 -6 -6 -7 -7 -7 -6 -5 -4 -3 -2 -1 -1 -0 0
-7 -7 -7 -7 -7 -7 -7 -6 -6 -5 -5 -5 -5 -5 -5 -6 -7 -6 -5 -4 -3 -2 -1 -1 -1 -1 0
-8 -8 -8 -7 -7 -7 -7 -6 -5 -5 -5 -5 -6 -5 -5 -4 -5 -6 -3 -3 -2 -1 -1 -0 -1 -1 -1
-8 -8 -8 -8 -7 -7 -7 -6 -6 -5 -5 -6 -6 -6 -6 -5 -4 -3 -2 -2 -2 -1 -1 -1 -0 -1 -1

GFSFLT2_925_temp_003.txt.gz
Temp
-1 -1 -1 -1 -1 -1 -1 -2 -2 -1 -1 -0 -0 0 1 1 1 1 2 2 3 3 4 3 4 4 4
-1 -1 -1 -1 -2 -2 -3 -2 -2 -2 -2 -1 -1 -0 0 0 1 1 1 1 1 0 1 2 2 4 4
-2 -2 -2 -2 -2 -3 -3 -3 -3 -3 -2 -2 -2 -1 -1 -0 -0 0 -0 0 0 1 1 2 2 3 4
-2 -2 -2 -3 -3 -3 -3 -3 -4 -4 -4 -4 -3 -2 -2 -2 -1 -1 -1 -1 -0 0 1 1 2 2 3
-2 -3 -3 -3 -3 -4 -4 -4 -4 -4 -4 -4 -4 -4 -4 -3 -3 -3 -2 -2 -1 -1 -0 0 1 1 2
-4 -3 -4 -4 -4 -4 -5 -5 -5 -4 -4 -4 -4 -5 -4 -4 -4 -3 -2 -2 -2 -1 -1 -0 0 0 1
-4 -4 -4 -4 -5 -5 -5 -5 -5 -4 -5 -5 -5 -5 -5 -5 -4 -3 -3 -2 -2 -2 -1 -0 -0 1 1
-4 -4 -4 -4 -4 -5 -5 -5 -5 -5 -5 -6 -5 -5 -5 -5 -5 -4 -3 -2 -2 -1 -1 -0 -1 -0 -0
-4 -4 -5 -5 -5 -5 -6 -6 -6 -5 -5 -6 -6 -6 -5 -5 -5 -4 -3 -2 -2 -2 -1 -1 -1 -1 -0
-6 -6 -6 -6 -5 -6 -6 -6 -6 -6 -5 -6 -6 -5 -5 -4 -4 -4 -4 -4 -3 -3 -3 -2 -2 -2 -2
-7 -7 -6 -6 -6 -7 -7 -7 -7 -6 -6 -6 -6 -6 -6 -5 -4 -4 -4 -4 -5 -5 -5 -4 -3 -3 -2
-7 -6 -6 -7 -7 -7 -7 -7 -7 -7 -7 -7 -6 -6 -5 -5 -5 -4 -4 -5 -5 -6 -6 -5 -4 -3 -2
-7 -7 -7 -7 -7 -7 -7 -7 -7 -7 -6 -6 -6 -6 -5 -5 -5 -5 -5 -5 -5 -6 -4 -4 -3 -3 -3
-8 -8 -8 -7 -7 -7 -7 -7 -7 -6 -5 -5 -5 -6 -6 -5 -6 -6 -6 -5 -4 -4 -3 -2 -1 -1 -2
-8 -8 -8 -8 -7 -7 -7 -7 -7 -6 -5 -5 -5 -5 -5 -5 -6 -5 -4 -4 -3 -2 -1 -1 -1 -1 -1
-9 -9 -9 -8 -8 -7 -7 -7 -6 -6 -5 -5 -6 -6 -4 -3 -4 -5 -3 -2 -1 -1 -1 -0 -0 -1 -1
-9 -9 -8 -9 -8 -8 -7 -7 -6 -5 -5 -5 -5 -5 -5 -3 -3 -2 -3 -1 -1 -1 -1 -1 -1 -1 -0

GFSFLT2_925_temp_006.txt.gz
Temp
-2 -2 -2 -2 -2 -2 -2 -2 -2 -3 -1 -1 -1 -1 -0 0 0 1 1 1 1 2 2 3 3 3 4
-3 -2 -2 -2 -2 -3 -3 -3 -3 -3 -2 -2 -1 -1 -1 -1 -1 -0 -0 0 0 1 1 1 1 2 3
-3 -2 -2 -3 -3 -3 -3 -3 -3 -3 -3 -3 -3 -2 -2 -2 -1 -1 -1 -1 -1 -0 -0 0 1 1 2
-3 -3 -3 -3 -3 -3 -4 -4 -4 -4 -4 -4 -3 -3 -3 -3 -2 -2 -2 -2 -1 -1 -1 -0 0 1 2
-3 -3 -3 -3 -4 -4 -4 -4 -4 -4 -4 -4 -4 -4 -4 -4 -4 -4 -4 -3 -2 -2 -1 -1 -1 0 1
-4 -4 -4 -5 -5 -5 -5 -5 -5 -4 -4 -5 -5 -5 -5 -5 -5 -4 -3 -2 -2 -2 -2 -1 -1 -1 0
-4 -5 -5 -5 -5 -5 -5 -5 -5 -5 -5 -5 -5 -5 -5 -5 -5 -4 -3 -3 -3 -3 -2 -1 -1 -1 -0
-4 -5 -5 -4 -5 -5 -5 -6 -5 -5 -5 -6 -5 -6 -5 -5 -5 -4 -4 -3 -3 -3 -2 -1 -1 -1 -1
-4 -5 -5 -5 -5 -5 -6 -6 -6 -5 -5 -6 -6 -6 -6 -5 -5 -4 -3 -3 -3 -2 -2 -2 -2 -1 -0
-6 -6 -7 -7 -6 -6 -6 -7 -6 -6 -5 -6 -6 -6 -5 -4 -4 -5 -5 -4 -4 -3 -3 -2 -2 -2 -3
-7 -7 -7 -6 -7 -7 -8 -7 -7 -7 -6 -6 -6 -6 -6 -6 -5 -4 -4 -4 -5 -5 -5 -4 -4 -3 -3
-7 -7 -7 -8 -8 -8 -8 -8 -7 -7 -7 -7 -6 -6 -6 -5 -5 -4 -4 -4 -5 -5 -5 -5 -4 -4 -3
-7 -8 -8 -8 -8 -8 -8 -7 -7 -7 -7 -6 -6 -6 -6 -5 -5 -5 -4 -4 -4 -5 -5 -4 -4 -4 -4
-8 -8 -8 -8 -8 -8 -8 -8 -7 -7 -6 -5 -5 -5 -5 -5 -5 -5 -4 -4 -4 -3 -3 -2 -2 -1 -1
-9 -9 -9 -8 -8 -8 -8 -8 -7 -7 -6 -5 -5 -5 -5 -5 -5 -4 -3 -3 -2 -1 -1 -1 -1 -1 -1
-9 -9 -9 -9 -8 -8 -8 -8 -7 -7 -6 -5 -6 -5 -4 -2 -3 -4 -2 -2 -1 -1 -1 -1 -0 -1 -1
-10 -9 -9 -9 -9 -9 -8 -8 -7 -6 -5 -6 -5 -5 -4 -4 -2 -1 -3 -2 -2 -1 -1 -1 -1 -1 0

GFSFLT2_925_temp_009.txt.gz
Temp
-1 -1 -1 -1 -1 -1 -2 -2 -2 -2 -1 -1 -1 -1 -1 -1 -1 -0 -0 0 1 1 1 2 2 2 3
-2 -2 -1 -1 -2 -2 -2 -2 -2 -2 -2 -2 -2 -1 -1 -1 -2 -1 -1 -1 -1 0 0 1 1 2 3
-2 -2 -2 -2 -3 -2 -2 -3 -3 -3 -3 -3 -3 -2 -2 -2 -2 -2 -1 -2 -1 -1 -1 -1 -0 0 1
-2 -3 -2 -2 -3 -3 -3 -3 -3 -3 -3 -3 -3 -3 -3 -3 -3 -2 -2 -2 -2 -2 -1 -1 -1 -0 1
-3 -3 -3 -3 -3 -3 -3 -4 -4 -4 -4 -4 -3 -4 -4 -4 -4 -4 -3 -3 -3 -2 -2 -2 -1 -1 -0
-3 -3 -3 -3 -4 -4 -4 -4 -3 -3 -4 -4 -4 -4 -4 -4 -4 -4 -3 -3 -2 -2 -2 -2 -1 -1 -1
-3 -4 -4 -4 -5 -5 -4 -4 -4 -4 -4 -4 -4 -4 -4 -4 -4 -4 -4 -3 -3 -3 -3 -2 -1 -1 -1
-4 -4 -4 -4 -4 -5 -5 -5 -5 -5 -4 -4 -4 -4 -4 -5 -4 -4 -4 -3 -3 -2 -2 -2 -2 -1 -1
-4 -4 -5 -5 -5 -5 -5 -6 -5 -5 -5 -5 -4 -4 -5 -4 -4 -4 -3 -3 -3 -3 -2 -2 -1 -1 -1
-5 -6 -6 -6 -6 -6 -6 -7 -6 -6 -4 -5 -5 -5 -4 -3 -3 -4 -4 -4 -3 -3 -3 -2 -2 -2 -2
-6 -6 -6 -6 -6 -7 -7 -8 -7 -7 -6 -6 -6 -6 -5 -5 -4 -3 -3 -4 -4 -4 -3 -3 -3 -3 -3
-6 -6 -6 -7 -8 -8 -8 -8 -8 -8 -7 -7 -6 -6 -5 -4 -3 -3 -3 -3 -3 -3 -3 -3 -3 -2 -2
-6 -7 -8 -8 -8 -8 -8 -8 -8 -7 -7 -7 -7 -6 -6 -4 -3 -4 -3 -2 -3 -3 -3 -3 -3 -3 -3
-8 -8 -8 -8 -8 -8 -8 -7 -7 -6 -6 -6 -6 -5 -5 -4 -4 -4 -3 -3 -2 -2 -2 -1 -1 -1 -2
-8 -9 -8 -8 -8 -8 -8 -7 -7 -6 -6 -5 -5 -5 -5 -4 -4 -3 -2 -2 -2 -2 -2 -1 -0 -1 -1
-9 -9 -9 -9 -8 -8 -8 -8 -7 -6 -6 -5 -5 -5 -3 -1 -1 -2 -2 -1 -2 -2 -1 -1 0 -0 -1
-10 -9 -9 -8 -9 -8 -8 -8 -7 -6 -5 -5 -5 -4 -3 -2 -1 -1 -3 -2 -2 -1 -1 -1 -1 -1 -1

GFSFLT2_925_temp_012.txt.gz
Temp
1 1 1 1 1 1 0 -0 -1 -0 -0 -1 -1 -1 -1 -1 -0 -0 0 0 0 1 1 1 2 2 2
0 0 0 0 0 -0 -0 -0 -0 -1 -1 -1 -1 -1 -1 -1 -1 -1 -1 -1 -1 -0 0 0 1 1 1
0 0 0 -1 -1 -1 -1 -1 -1 -1 -1 -1 -1 -1 -1 -1 -1 -1 -1 -1 -1 -1 -0 -0 0 0 1
-0 -1 -1 -1 -1 -0 -1 -1 -1 -2 -2 -2 -2 -2 -1 -1 -1 -1 -2 -2 -2 -1 -1 -1 -1 -1 -0
-1 -1 -1 -0 -1 -1 -2 -2 -2 -2 -2 -2 -1 -2 -2 -2 -2 -2 -2 -2 -2 -2 -2 -2 -1 -1 -1
-2 -1 -1 -1 -2 -2 -3 -3 -2 -2 -2 -2 -2 -2 -2 -2 -2 -2 -2 -2 -2 -2 -2 -2 -1 -1 -1
-2 -2 -2 -2 -3 -4 -3 -3 -3 -3 -3 -3 -2 -2 -2 -2 -2 -2 -2 -2 -2 -2 -2 -2 -2 -2 -1
-3 -3 -4 -4 -4 -4 -4 -4 -4 -3 -3 -2 -3 -2 -2 -3 -3 -2 -2 -2 -2 -2 -2 -1 -2 -1 -1
-3 -3 -3 -4 -4 -4 -5 -4 -3 -3 -4 -3 -2 -3 -3 -3 -2 -1 -1 -2 -3 -3 -3 -2 -2 -1 -1
-3 -4 -4 -4 -4 -4 -5 -5 -5 -4 -3 -4 -4 -4 -3 -2 -1 -2 -2 -2 -1 -2 -2 -2 -2 -2 -2
-4 -4 -4 -3 -4 -5 -5 -6 -6 -6 -5 -5 -5 -5 -5 -4 -3 -2 -2 -1 -1 -1 -2 -1 -1 -2 -2
-5 -4 -4 -5 -5 -6 -7 -7 -7 -7 -7 -7 -6 -6 -5 -4 -3 -2 -1 -2 -1 -2 -2 -2 -2 -1 -1
-5 -6 -6 -6 -6 -6 -6 -6 -6 -6 -6 -6 -6 -6 -5 -4 -3 -3 -2 -2 -1 -2 -2 -2 -2 -2 -1
-6 -6 -6 -6 -6 -6 -6 -6 -6 -5 -5 -5 -5 -5 -4 -4 -3 -3 -2 -1 -1 -1 -1 -2 -1 -1 -1
-7 -7 -7 -6 -6 -6 -6 -6 -6 -5 -5 -4 -4 -4 -4 -4 -3 -2 -1 0 -1 -1 -2 -1 -0 -1 -1
-8 -7 -7 -7 -7 -6 -6 -6 -5 -5 -5 -4 -4 -3 -2 -1 -0 -1 -0 -1 -1 -1 -1 -1 0 0 -1
-8 -8 -7 -7 -7 -7 -6 -6 -5 -5 -5 -4 -4 -3 -2 -2 -1 -1 -2 -2 -2 -1 -1 -1 -1 -1 -1

GFSFLT2_925_temp_015.txt.gz
Temp
2 2 1 1 1 1 1 0 0 1 0 0 0 0 0 0 0 0 0 1 1 1 1 1 2 2 3
1 1 1 1 1 -0 -0 0 -0 0 0 0 0 0 0 0 0 -0 0 0 0 0 1 1 1 1 1
1 0 0 0 -1 -0 -0 0 -0 -0 -1 -1 -1 -1 -0 -0 0 0 0 0 -0 -0 -1 -0 0 0 0
-1 -1 -1 -1 -0 -0 -0 -1 -1 -1 -2 -1 -1 -1 -1 -0 -1 -1 -1 -1 -1 -1 -0 -1 -1 -0 -0
-2 -1 -1 -1 -1 -1 -1 -2 -2 -2 -2 -2 -1 -2 -2 -2 -1 -1 -1 -1 -1 -1 -1 -1 -1 -1 -1
-2 -1 -1 -1 -2 -2 -3 -3 -3 -3 -2 -3 -3 -2 -2 -2 -1 -1 -1 -1 -1 -1 -1 -1 -1 -1 -1
-1 -1 -2 -2 -3 -3 -3 -3 -3 -3 -3 -3 -3 -3 -2 -2 -2 -1 -1 -1 -1 -1 -1 -1 -1 -1 -1
-2 -2 -3 -3 -4 -4 -4 -4 -4 -4 -3 -4 -3 -3 -3 -2 -3 -2 -2 -1 -0 -0 -0 -1 -1 -1 -1
-3 -3 -3 -2 -3 -3 -4 -4 -4 -3 -4 -4 -4 -3 -4 -4 -3 -1 -0 -0 -1 -1 -0 -0 -0 -0 -1
-4 -3 -3 -3 -3 -3 -3 -5 -5 -5 -4 -4 -5 -5 -4 -3 -2 -3 -3 -2 -1 -1 -0 0 -0 -1 -1
-4 -4 -4 -4 -3 -4 -5 -5 -5 -5 -5 -5 -5 -5 -5 -5 -4 -4 -3 -3 -2 -2 -2 -1 -0 -1 -1
-4 -4 -5 -5 -5 -5 -6 -6 -6 -6 -6 -6 -6 -6 -5 -5 -4 -3 -3 -3 -3 -2 -2 -2 -1 -1 -1
-5 -5 -5 -6 -6 -6 -6 -5 -5 -6 -5 -5 -6 -5 -5 -5 -4 -4 -3 -3 -3 -3 -2 -1 -1 -2 -2
-6 -6 -6 -6 -6 -6 -6 -6 -6 -5 -5 -5 -5 -5 -4 -4 -4 -4 -3 -3 -3 -2 -1 -1 -1 -1 -1
-6 -7 -7 -7 -6 -7 -6 -6 -6 -5 -5 -5 -4 -4 -4 -4 -3 -3 -3 -2 -1 -1 -1 -2 -1 -1 -1
-7 -7 -7 -7 -7 -6 -6 -6 -6 -5 -5 -5 -4 -4 -3 -2 -1 -2 -1 -2 -2 -2 -2 -2 -1 -0 -1
-7 -7 -7 -7 -7 -7 -6 -6 -6 -5 -5 -5 -4 -4 -4 -3 -2 -1 -3 -3 -3 -2 -1 -1 -1 -1 -1

GFSFLT2_925_temp_018.txt.gz
Temp
0 1 1 1 1 0 0 -0 -0 -0 0 0 1 1 1 1 1 1 1 1 1 1 1 1 2 2 3
-0 -0 -0 -0 -1 -1 -1 -1 -1 -0 -0 0 -0 -0 -0 0 0 0 0 0 1 1 1 1 1 1 2
-2 -1 -2 -2 -2 -1 -1 -1 -1 -1 -1 -1 -1 -1 -1 -0 0 0 0 0 0 0 0 0 1 1 1
-2 -3 -3 -2 -2 -2 -2 -2 -2 -3 -3 -3 -2 -2 -2 -1 -1 -1 -1 -1 -0 -0 0 0 0 0 0
-2 -2 -3 -2 -2 -2 -3 -3 -3 -3 -3 -3 -3 -3 -3 -3 -3 -2 -2 -1 -0 -0 0 0 0 0 0
-3 -3 -2 -2 -3 -3 -4 -4 -4 -3 -3 -4 -4 -4 -4 -4 -3 -2 -2 -1 -1 -0 -0 0 0 0 0
-3 -3 -3 -3 -3 -4 -4 -4 -4 -4 -4 -4 -4 -4 -4 -4 -3 -3 -2 -2 -1 -1 -0 0 0 0 0
-3 -3 -3 -3 -4 -4 -3 -4 -4 -4 -4 -4 -4 -4 -4 -4 -4 -3 -3 -2 -1 0 0 -0 -0 0 0
-3 -3 -3 -3 -3 -3 -4 -4 -4 -4 -4 -5 -5 -5 -5 -5 -4 -3 -3 -2 -2 -2 -1 -1 -0 0 1
-4 -4 -4 -4 -4 -4 -4 -6 -6 -5 -4 -5 -5 -6 -5 -4 -3 -4 -4 -4 -4 -3 -2 -1 -1 -1 -1
-5 -5 -5 -5 -5 -5 -6 -6 -6 -6 -5 -5 -6 -6 -6 -6 -5 -5 -4 -4 -4 -4 -4 -3 -2 -1 -1
-5 -5 -5 -6 -6 -6 -6 -7 -6 -7 -6 -6 -6 -6 -6 -5 -5 -4 -4 -4 -4 -4 -4 -3 -2 -2 -1
-6 -6 -6 -6 -7 -7 -7 -7 -7 -7 -6 -6 -6 -6 -6 -5 -5 -5 -4 -4 -4 -3 -3 -3 -3 -2 -2
-7 -7 -7 -7 -7 -7 -7 -7 -7 -6 -6 -6 -5 -5 -5 -5 -5 -5 -4 -4 -3 -3 -3 -3 -2 -2 -2
-7 -7 -7 -7 -7 -7 -7 -7 -7 -6 -6 -6 -5 -5 -5 -5 -5 -4 -4 -3 -3 -2 -3 -3 -2 -2 -2
-8 -8 -8 -8 -8 -7 -7 -7 -7 -6 -6 -6 -6 -6 -4 -4 -3 -3 -3 -3 -3 -3 -3 -3 -2 -2 -1
-8 -8 -8 -8 -7 -7 -7 -7 -7 -6 -6 -6 -6 -5 -4 -4 -2 -2 -3 -3 -3 -3 -3 -2 -2 -2 -2

GFSFLT2_925_temp_021.txt.gz
Temp
-1 -1 -1 -1 -1 -1 -1 -1 -1 -1 -1 -0 0 0 0 1 1 1 1 1 1 1 1 2 2 2 3
-2 -2 -2 -2 -2 -2 -2 -2 -2 -2 -1 -1 -1 -1 -1 -0 0 0 1 1 0 1 1 1 1 1 2
-2 -2 -3 -3 -3 -3 -3 -3 -2 -2 -2 -2 -2 -2 -1 -1 -1 -1 -0 -0 -0 -0 0 0 0 1 1
-3 -3 -3 -3 -3 -3 -3 -3 -3 -3 -3 -3 -3 -2 -2 -2 -2 -2 -2 -2 -1 -1 -0 -0 0 0 1
-4 -3 -3 -3 -3 -3 -4 -3 -4 -4 -4 -3 -3 -4 -4 -4 -4 -3 -3 -2 -1 -1 -1 -0 -0 0 0
-3 -3 -3 -4 -3 -4 -4 -4 -4 -3 -3 -4 -4 -4 -4 -4 -4 -3 -2 -2 -2 -1 -1 -1 -0 0 1
-3 -4 -4 -4 -4 -4 -5 -4 -4 -4 -4 -5 -4 -5 -4 -4 -4 -4 -3 -2 -2 -2 -1 -0 0 0 0
-3 -3 -3 -4 -4 -4 -4 -4 -5 -5 -4 -5 -4 -4 -4 -5 -5 -4 -3 -3 -2 -1 -1 -1 -1 -0 0
-3 -3 -3 -4 -4 -4 -5 -6 -6 -5 -5 -5 -5 -5 -5 -5 -4 -3 -3 -3 -3 -3 -3 -2 -2 -1 -1
-4 -4 -4 -5 -5 -5 -5 -6 -6 -6 -4 -5 -6 -6 -5 -4 -4 -4 -4 -5 -4 -4 -3 -3 -2 -2 -2
-5 -5 -5 -6 -6 -6 -6 -7 -7 -7 -6 -6 -6 -6 -6 -6 -5 -5 -5 -5 -5 -5 -4 -4 -3 -3 -2
-6 -6 -6 -7 -6 -7 -7 -7 -7 -7 -7 -7 -7 -7 -6 -6 -6 -5 -4 -5 -5 -5 -5 -4 -4 -3 -2
-6 -7 -7 -7 -7 -7 -7 -7 -7 -7 -7 -7 -7 -7 -7 -6 -6 -6 -5 -5 -5 -5 -4 -4 -4 -4 -4
-7 -8 -8 -8 -7 -7 -8 -7 -8 -7 -6 -6 -6 -6 -6 -6 -6 -5 -5 -5 -4 -4 -4 -4 -3 -3 -3
-8 -8 -8 -8 -8 -8 -8 -8 -7 -7 -7 -6 -6 -6 -7 -7 -6 -6 -5 -5 -4 -4 -4 -3 -3 -3 -3
-9 -9 -9 -8 -8 -8 -7 -8 -7 -7 -7 -7 -6 -6 -6 -5 -5 -5 -5 -4 -4 -4 -4 -3 -3 -3 -2
-9 -9 -9 -9 -7 -8 -8 -7 -7 -7 -7 -6 -6 -5 -5 -4 -3 -2 -3 -3 -3 -3 -3 -3 -3 -2 -2

GFSFLT2_925_temp_024.txt.gz
Temp
-1 -1 -1 -1 -2 -2 -2 -2 -2 -2 -2 -1 -1 -0 -0 0 0 0 1 1 1 1 1 2 2 3 3
-2 -1 -2 -2 -2 -2 -2 -2 -3 -3 -2 -2 -1 -1 -1 -1 -0 0 0 0 0 0 1 1 1 2 2
-3 -2 -2 -2 -3 -3 -3 -4 -3 -3 -3 -3 -2 -2 -2 -1 -1 -1 -1 -1 -1 -0 -0 0 1 1 1
-2 -3 -3 -3 -3 -4 -4 -4 -4 -4 -4 -4 -3 -3 -2 -2 -2 -2 -2 -2 -2 -1 -1 -0 -0 0 1
-3 -3 -4 -3 -4 -4 -5 -4 -4 -4 -3 -4 -3 -4 -4 -4 -4 -3 -3 -3 -2 -1 -1 -1 -0 -0 0
-3 -4 -4 -4 -4 -5 -5 -5 -4 -3 -4 -4 -4 -5 -4 -4 -4 -4 -3 -2 -2 -2 -1 -1 -1 -1 -0
-3 -4 -4 -4 -4 -5 -5 -5 -5 -5 -5 -5 -5 -5 -5 -4 -4 -4 -3 -3 -2 -2 -1 -1 -1 -0 -0
-3 -3 -3 -4 -4 -4 -4 -5 -5 -5 -5 -6 -5 -5 -5 -5 -5 -4 -4 -3 -3 -2 -1 -1 -1 -1 -1
-3 -3 -3 -3 -4 -4 -5 -6 -6 -6 -6 -6 -6 -5 -5 -5 -4 -3 -4 -3 -3 -3 -3 -2 -2 -2 -1
-4 -4 -4 -4 -5 -5 -6 -7 -7 -6 -5 -6 -6 -6 -5 -4 -4 -4 -5 -4 -4 -4 -3 -3 -3 -2 -3
-5 -5 -5 -6 -6 -6 -7 -7 -7 -7 -7 -6 -6 -7 -7 -7 -6 -5 -5 -5 -5 -5 -5 -4 -4 -3 -3
-6 -7 -7 -7 -7 -7 -7 -7 -7 -8 -7 -8 -8 -8 -7 -7 -6 -5 -5 -5 -6 -6 -6 -5 -5 -4 -3
-7 -7 -8 -8 -7 -7 -7 -7 -8 -7 -7 -7 -7 -7 -7 -7 -7 -6 -6 -5 -5 -6 -5 -5 -4 -5 -5
-8 -8 -8 -8 -8 -8 -8 -8 -8 -8 -7 -7 -7 -7 -7 -7 -7 -6 -6 -6 -5 -5 -5 -5 -5 -5 -5
-9 -9 -8 -8 -9 -8 -9 -8 -8 -7 -7 -7 -6 -7 -7 -7 -7 -6 -6 -6 -5 -5 -5 -5 -5 -4 -4
-9 -9 -9 -9 -9 -8 -8 -8 -8 -8 -7 -7 -7 -7 -6 -5 -5 -6 -6 -5 -5 -4 -4 -4 -3 -3 -3
-10 -9 -9 -9 -8 -9 -9 -8 -8 -7 -7 -7 -6 -5 -5 -5 -3 -2 -3 -3 -3 -3 -3 -3 -3 -3 -3

GFSFLT2_925_temp_027.txt.gz
Temp
-0 -0 -1 -1 -1 -2 -2 -2 -2 -3 -2 -2 -1 -1 -0 -0 0 0 1 1 1 1 2 2 2 2 3
-1 -1 -1 -1 -2 -2 -2 -3 -3 -3 -3 -2 -2 -1 -1 -1 -1 -1 -0 -0 0 1 1 1 2 1 2
-3 -2 -2 -2 -2 -3 -3 -4 -4 -4 -3 -3 -3 -2 -2 -1 -1 -1 -1 -1 -1 -0 -0 -0 0 1 1
-2 -2 -2 -3 -3 -4 -4 -4 -4 -4 -4 -4 -3 -3 -3 -3 -3 -2 -2 -2 -2 -1 -1 -1 -0 -0 0
-3 -3 -3 -4 -4 -4 -5 -5 -5 -4 -4 -4 -3 -5 -4 -4 -3 -4 -4 -3 -2 -2 -1 -1 -0 -1 -0
-2 -4 -4 -4 -4 -5 -5 -6 -5 -4 -4 -5 -5 -5 -4 -4 -4 -4 -3 -2 -2 -2 -1 -1 -1 -1 -1
-3 -3 -4 -4 -4 -5 -5 -6 -5 -5 -5 -5 -5 -5 -5 -4 -4 -4 -3 -3 -2 -2 -2 -1 -1 -1 -1
-3 -3 -3 -3 -4 -4 -4 -5 -5 -6 -5 -6 -5 -5 -5 -5 -5 -4 -4 -3 -3 -2 -2 -1 -1 -1 -1
-3 -4 -4 -4 -4 -4 -5 -6 -6 -6 -6 -6 -6 -5 -5 -5 -4 -3 -4 -3 -3 -2 -2 -2 -2 -2 -2
-4 -4 -4 -4 -5 -5 -6 -7 -7 -7 -5 -6 -6 -7 -6 -4 -4 -4 -5 -5 -5 -4 -4 -3 -3 -3 -3
-5 -5 -5 -5 -6 -6 -7 -8 -8 -7 -7 -7 -6 -7 -7 -7 -6 -6 -6 -6 -5 -5 -5 -5 -4 -4 -4
-7 -7 -7 -7 -6 -7 -7 -7 -8 -8 -6 -8 -8 -8 -8 -7 -7 -6 -6 -6 -6 -6 -6 -5 -5 -4 -3
-8 -7 -7 -8 -7 -7 -7 -7 -8 -8 -7 -7 -8 -8 -7 -7 -7 -7 -6 -6 -6 -6 -6 -5 -5 -5 -6
-8 -8 -8 -8 -8 -8 -9 -9 -9 -8 -7 -7 -7 -7 -7 -7 -7 -7 -7 -6 -6 -6 -6 -6 -6 -6 -6
-9 -10 -9 -9 -9 -8 -9 -9 -9 -8 -8 -7 -7 -7 -7 -7 -7 -6 -6 -6 -6 -6 -6 -6 -5 -5 -5
-9 -10 -10 -10 -9 -9 -8 -9 -9 -8 -8 -7 -7 -7 -6 -5 -5 -6 -6 -6 -5 -5 -5 -5 -4 -3 -3
-9 -9 -9 -9 -9 -9 -9 -9 -8 -8 -8 -8 -7 -6 -6 -5 -4 -3 -4 -4 -4 -4 -3 -3 -3 -3 -3

GFSFLT2_925_temp_030.txt.gz
Temp
0 1 0 -0 -1 -1 -1 -2 -2 -2 -3 -2 -2 -1 -1 -0 -0 0 1 1 1 1 2 2 2 2 3
-1 -1 -1 -1 -1 -2 -2 -2 -3 -3 -3 -3 -2 -2 -2 -1 -1 -0 -0 0 0 1 1 1 1 2 2
-2 -2 -2 -2 -2 -2 -3 -3 -3 -3 -3 -4 -3 -3 -2 -2 -1 -1 -1 -1 -1 -0 0 0 1 1 1
-2 -2 -2 -2 -3 -3 -4 -4 -4 -4 -3 -3 -4 -3 -3 -3 -3 -3 -2 -2 -2 -1 -1 -1 -0 -0 0
-3 -3 -3 -3 -4 -4 -5 -5 -5 -4 -4 -4 -4 -4 -3 -3 -4 -4 -4 -3 -2 -2 -1 -1 -1 -1 -0
-2 -3 -4 -3 -4 -5 -5 -5 -4 -4 -4 -5 -5 -5 -4 -4 -3 -4 -3 -2 -2 -2 -1 -1 -1 -1 -1
-3 -3 -4 -4 -4 -4 -5 -5 -5 -5 -5 -6 -5 -5 -4 -4 -4 -4 -3 -3 -3 -2 -2 -1 -1 -1 -1
-3 -3 -3 -3 -4 -4 -4 -5 -6 -6 -6 -6 -5 -5 -4 -4 -5 -4 -3 -3 -3 -2 -2 -1 -1 -1 -1
-4 -4 -4 -4 -4 -5 -5 -6 -7 -6 -6 -6 -6 -5 -6 -5 -3 -3 -4 -3 -3 -3 -3 -3 -2 -2 -2
-5 -4 -4 -4 -5 -5 -6 -7 -8 -7 -5 -6 -6 -7 -6 -4 -4 -4 -5 -5 -5 -5 -4 -4 -3 -3 -3
-5 -5 -5 -5 -5 -6 -7 -8 -8 -8 -7 -7 -7 -7 -7 -7 -6 -6 -6 -6 -5 -6 -6 -5 -5 -4 -4
-6 -6 -6 -6 -6 -6 -6 -7 -8 -8 -6 -8 -8 -8 -8 -8 -7 -6 -6 -6 -6 -6 -6 -6 -5 -5 -4
-8 -8 -7 -7 -6 -6 -6 -6 -7 -7 -6 -6 -8 -8 -8 -8 -7 -7 -7 -6 -6 -6 -5 -5 -5 -6 -6
-8 -8 -7 -7 -7 -7 -8 -8 -9 -7 -7 -7 -7 -7 -8 -8 -8 -7 -7 -7 -6 -6 -6 -6 -6 -6 -6
-9 -9 -9 -8 -8 -7 -8 -9 -9 -8 -8 -6 -7 -7 -8 -8 -8 -7 -7 -6 -6 -6 -6 -6 -6 -6 -6
-9 -9 -9 -9 -9 -8 -8 -9 -9 -9 -8 -8 -8 -8 -7 -5 -5 -6 -6 -6 -5 -5 -5 -5 -4 -4 -4
-9 -8 -8 -8 -9 -9 -8 -9 -8 -8 -8 -8 -8 -6 -6 -6 -4 -3 -4 -4 -4 -4 -4 -4 -4 -3 -3

GFSFLT2_925_temp_036.txt.gz
Temp
1 1 1 1 0 1 1 0 0 0 -0 -1 -1 -1 -1 -0 0 0 1 1 1 2 2 3 3 3 3
-1 -1 -1 -1 -2 -1 -0 -0 -0 -0 -1 -2 -2 -1 -1 -1 -1 -0 0 0 1 1 2 2 2 2 3
-2 -2 -3 -3 -3 -2 -1 -0 -0 -1 -1 -1 -2 -2 -1 -1 -1 -1 -0 -0 -0 -0 0 0 1 1 2
-2 -2 -2 -2 -2 -1 -0 -0 -0 -1 -1 -2 -2 -2 -2 -2 -2 -2 -2 -2 -1 -1 -1 -1 -0 0 1
-1 -2 -2 -1 0 0 -1 -1 -1 -1 -1 -1 -1 -1 -1 -1 -1 -1 -2 -2 -2 -2 -1 -1 -0 0 0
-2 -1 0 0 -0 -1 -1 -2 -2 -2 -1 -1 -1 -1 -1 -1 -1 -1 -2 -2 -2 -2 -1 -1 -1 -0 -0
-1 -0 -0 -1 -2 -3 -3 -3 -3 -2 -2 -2 -2 -1 -1 -1 -1 -1 -2 -2 -2 -2 -2 -1 -1 -1 -0
-2 -2 -2 -2 -2 -3 -3 -3 -2 -2 -2 -2 -2 -1 -1 -1 -1 -2 -2 -2 -2 -2 -2 -2 -1 -1 -1
-4 -4 -4 -3 -3 -3 -3 -3 -3 -2 -2 -2 -2 -2 -2 -2 -2 -2 -2 -2 -3 -2 -2 -2 -2 -2 -2
-3 -3 -4 -4 -4 -4 -4 -4 -4 -4 -2 -4 -3 -3 -3 -2 -2 -2 -2 -2 -2 -3 -3 -3 -3 -3 -3
-4 -3 -3 -4 -4 -4 -4 -5 -6 -6 -5 -5 -5 -5 -5 -4 -3 -3 -3 -3 -3 -3 -3 -3 -3 -3 -4
-4 -3 -3 -4 -5 -5 -6 -6 -6 -7 -5 -6 -7 -6 -6 -6 -5 -3 -3 -3 -4 -4 -4 -4 -4 -4 -3
-4 -4 -4 -5 -6 -7 -6 -6 -7 -7 -6 -6 -7 -7 -7 -7 -6 -6 -5 -4 -5 -5 -5 -5 -4 -4 -4
-5 -5 -5 -6 -6 -5 -6 -5 -5 -5 -4 -5 -6 -7 -7 -7 -7 -6 -6 -5 -5 -5 -4 -4 -4 -4 -4
-6 -6 -6 -6 -6 -6 -6 -6 -6 -5 -4 -4 -4 -5 -6 -6 -6 -6 -5 -5 -5 -5 -5 -4 -4 -3 -3
-7 -7 -7 -7 -7 -6 -6 -6 -5 -4 -5 -5 -5 -5 -4 -4 -4 -5 -4 -4 -3 -3 -3 -3 -3 -2 -3
-8 -8 -8 -8 -8 -7 -6 -6 -5 -4 -4 -5 -4 -4 -3 -3 -2 -2 -3 -3 -3 -3 -3 -3 -2 -2 -2

GFSFLT2_925_temp_039.txt.gz
Temp
1 1 1 1 1 1 0 0 0 0 1 1 0 0 -0 -0 0 1 1 1 2 2 2 3 3 4 3
0 0 0 0 0 -0 -0 -1 -1 -1 -1 -1 -1 -1 -0 -0 -0 -0 0 0 1 1 2 2 2 3 3
-1 -1 -1 -2 -2 -2 -2 -2 -1 -1 0 0 0 0 -0 -0 -0 -0 -0 0 0 0 0 1 1 1 2
-2 -2 -2 -1 -2 -2 -2 -0 -0 -0 -0 -0 -0 -0 -1 -1 -0 -0 -1 -1 -1 -1 -0 -0 -0 0 1
-1 -2 -1 -1 -1 0 0 -0 -0 -1 -1 -1 -0 -1 -1 -1 -1 -0 -0 -0 -0 -1 -1 -0 -0 0 1
-1 -1 -1 0 1 0 -1 -2 -2 -1 -2 -2 -2 -1 -1 -1 -1 -0 -0 -0 -1 -1 -1 -1 -0 -0 0
-1 -0 0 0 -1 -2 -2 -2 -2 -2 -2 -2 -2 -2 -1 -1 -0 -0 -0 -0 -1 -1 -1 -1 -1 -1 -0
-1 -1 -1 -1 -2 -2 -2 -3 -2 -2 -2 -2 -1 -1 -1 -1 -1 -1 -1 -1 -1 -1 -1 -1 -1 -1 -1
-3 -3 -3 -3 -3 -3 -3 -3 -3 -3 -2 -2 -2 -2 -2 -2 -2 -1 -1 -1 -1 -1 -1 -1 -2 -1 -2
-2 -2 -3 -3 -3 -3 -4 -4 -4 -4 -2 -3 -3 -3 -4 -2 -2 -2 -2 -2 -2 -1 -2 -2 -2 -2 -2
-3 -3 -3 -3 -3 -3 -4 -4 -4 -5 -5 -5 -4 -5 -4 -4 -4 -4 -4 -3 -3 -3 -3 -3 -3 -2 -3
-3 -3 -3 -3 -3 -4 -5 -5 -5 -6 -6 -6 -6 -6 -6 -6 -6 -5 -5 -5 -5 -5 -4 -4 -4 -3 -3
-4 -3 -4 -4 -5 -5 -6 -6 -6 -6 -6 -5 -6 -6 -7 -7 -6 -6 -6 -5 -5 -5 -5 -4 -4 -4 -4
-4 -4 -5 -5 -5 -5 -5 -5 -5 -5 -5 -5 -4 -5 -6 -6 -6 -6 -5 -5 -5 -5 -5 -5 -4 -4 -4
-5 -6 -6 -6 -6 -5 -5 -6 -6 -6 -5 -4 -4 -4 -5 -5 -5 -5 -5 -5 -4 -5 -5 -4 -4 -4 -4
-7 -7 -7 -7 -7 -7 -7 -6 -6 -5 -5 -4 -4 -4 -4 -4 -4 -4 -4 -4 -4 -3 -3 -3 -3 -3 -3
-8 -7 -7 -8 -7 -7 -7 -7 -6 -5 -5 -5 -5 -4 -4 -4 -2 -2 -2 -3 -3 -3 -3 -3 -3 -3 -3

GFSFLT2_925_temp_042.txt.gz
Temp
0 1 1 2 2 2 2 2 2 1 1 1 1 1 1 1 1 1 1 1 2 2 2 3 3 4 4
0 -0 1 1 1 1 0 0 1 1 0 0 0 0 1 1 1 0 1 1 1 1 2 2 2 3 3
-0 -0 -0 0 -0 -0 0 0 0 0 -0 0 1 1 0 0 0 0 0 0 0 1 1 1 1 1 2
-0 -1 -1 -1 -1 -1 -1 -0 -0 -0 -0 -0 -0 -0 -0 0 0 0 -0 -0 0 0 0 0 0 0 1
-1 -1 -2 -2 -2 -0 -1 -1 -0 -0 -1 -1 -1 -1 -1 -1 -1 -1 -1 -0 0 0 0 0 0 0 1
-1 -1 -1 -0 -0 -1 -1 -1 -3 -1 -2 -2 -2 -2 -2 -1 -1 -1 -0 -0 0 0 0 0 0 0 0
-1 -1 -1 -1 -1 -1 -1 -2 -2 -2 -3 -3 -3 -2 -2 -2 -1 -1 -1 -0 -0 -0 -0 -0 -0 -0 0
-2 -2 -2 -2 -2 -2 -2 -3 -3 -3 -3 -3 -2 -2 -1 -1 -1 -1 -1 -1 -1 -0 -0 -0 -1 -1 -1
-2 -2 -2 -3 -3 -3 -3 -3 -4 -4 -3 -3 -3 -3 -2 -1 -1 -1 -1 -2 -2 -2 -1 -1 -1 -1 -1
-3 -3 -3 -3 -3 -3 -3 -4 -4 -4 -3 -4 -4 -4 -4 -3 -3 -3 -3 -3 -3 -4 -3 -2 -2 -2 -2
-4 -3 -3 -3 -3 -3 -3 -4 -4 -4 -4 -5 -5 -5 -5 -5 -5 -5 -5 -4 -5 -5 -5 -5 -4 -3 -3
-4 -4 -3 -3 -3 -3 -4 -5 -5 -5 -5 -6 -6 -6 -6 -6 -6 -5 -5 -6 -5 -5 -5 -4 -4 -4 -4
-4 -4 -4 -4 -4 -4 -5 -5 -5 -6 -6 -6 -6 -6 -6 -6 -6 -5 -5 -5 -5 -4 -4 -5 -5 -4 -5
-5 -5 -5 -5 -5 -5 -6 -5 -6 -5 -5 -6 -6 -5 -6 -6 -6 -5 -5 -5 -5 -5 -5 -5 -5 -4 -4
-6 -6 -6 -6 -7 -7 -7 -6 -6 -6 -6 -6 -5 -5 -5 -5 -5 -5 -5 -5 -5 -5 -5 -5 -4 -3 -4
-7 -7 -7 -7 -7 -7 -7 -7 -7 -6 -6 -6 -5 -5 -5 -5 -4 -5 -5 -4 -4 -4 -4 -4 -4 -4 -4
-7 -7 -7 -7 -7 -7 -7 -7 -7 -7 -6 -6 -6 -6 -5 -5 -4 -3 -3 -3 -3 -4 -4 -4 -4 -4 -4

GFSFLT2_925_temp_045.txt.gz
Temp
2 2 2 2 1 1 1 1 1 -0 1 1 1 2 2 2 1 1 1 2 2 2 3 3 4 4 4
1 1 1 1 1 1 -0 -0 -0 0 1 -0 1 1 1 1 1 1 1 1 1 1 2 2 3 3 3
-0 -0 -0 -0 -1 -1 -0 0 -0 -0 -1 -0 1 1 1 1 1 1 1 1 1 1 1 1 1 2 2
0 -1 -1 -1 -1 -1 -1 -1 -0 -0 -0 -0 -0 -1 -1 -1 -0 -0 -0 -0 -0 0 0 1 1 1 1
-1 -1 -1 -2 -2 -1 -1 -1 -0 -0 -1 -0 -1 -1 -1 -1 -1 -1 -1 -1 -0 0 0 1 1 1 1
-1 -1 -2 -1 -1 -1 -1 -2 -2 -1 -2 -2 -2 -2 -1 -1 -1 -1 -1 -0 -0 0 0 0 1 1 1
-1 -1 -1 -1 -1 -1 -2 -2 -2 -2 -3 -3 -2 -2 -1 -1 -1 -2 -1 -1 -1 -0 -0 -0 0 0 0
-1 -2 -2 -2 -2 -2 -3 -3 -3 -3 -3 -4 -3 -3 -2 -1 -1 -2 -2 -1 -1 -1 -1 -1 -1 -1 -0
-2 -2 -2 -2 -2 -3 -3 -3 -4 -4 -4 -4 -4 -4 -3 -2 -1 -2 -2 -2 -2 -3 -3 -3 -2 -2 -1
-2 -3 -3 -3 -3 -3 -3 -3 -4 -5 -4 -4 -4 -5 -5 -3 -2 -2 -2 -3 -3 -4 -4 -4 -4 -4 -3
-4 -4 -4 -3 -3 -3 -3 -4 -4 -4 -4 -4 -6 -6 -5 -5 -5 -4 -4 -4 -4 -3 -3 -4 -3 -4 -4
-4 -4 -4 -4 -4 -4 -4 -4 -5 -5 -5 -6 -6 -6 -6 -6 -6 -5 -5 -5 -4 -4 -3 -3 -3 -3 -4
-5 -5 -5 -5 -5 -5 -5 -5 -5 -5 -5 -6 -6 -6 -6 -6 -6 -6 -5 -4 -4 -4 -3 -4 -3 -3 -4
-5 -6 -6 -6 -6 -6 -6 -6 -6 -6 -6 -6 -6 -6 -6 -6 -6 -6 -5 -5 -4 -5 -5 -5 -5 -4 -4
-6 -6 -7 -7 -7 -7 -7 -7 -7 -7 -7 -6 -6 -6 -6 -6 -6 -5 -5 -5 -5 -5 -5 -5 -5 -5 -5
-7 -7 -7 -7 -7 -7 -7 -7 -7 -7 -7 -7 -7 -6 -6 -6 -5 -5 -5 -5 -5 -5 -5 -5 -4 -4 -4
-7 -7 -7 -7 -7 -7 -8 -8 -8 -7 -7 -7 -7 -7 -7 -6 -5 -4 -4 -5 -5 -5 -4 -4 -5 -4 -4

GFSFLT2_925_temp_048.txt.gz
Temp
4 4 3 3 3 3 2 2 2 2 1 1 1 1 2 2 2 2 2 2 2 3 3 3 4 4 5
2 2 2 1 1 1 2 1 1 1 1 0 1 1 1 1 1 2 2 2 2 2 2 2 3 3 4
1 0 -0 0 -0 0 0 -0 -0 -1 -1 -1 -0 0 1 1 1 1 1 1 1 1 1 2 2 2 2
0 -0 -0 -0 -1 -1 -1 -1 -1 -1 -2 -1 -0 -0 -0 -0 -0 -0 -0 -0 -0 0 0 1 1 1 1
-1 -1 -1 -1 -1 -1 -1 -2 -2 -1 -1 -0 -1 -1 -1 -1 -1 -1 -1 -1 -1 -1 0 1 1 1 1
-1 -1 -2 -2 -2 -2 -2 -2 -2 -2 -2 -1 -2 -1 -1 -1 -1 -1 -2 -1 -1 -0 0 0 1 1 1
-2 -2 -2 -2 -2 -2 -2 -2 -2 -2 -3 -3 -2 -2 -1 -1 -1 -2 -2 -1 -1 -1 -0 -0 0 0 0
-2 -2 -2 -2 -2 -2 -3 -3 -3 -3 -3 -4 -3 -3 -2 -1 -1 -2 -2 -2 -1 -1 -1 -1 -1 -1 -1
-3 -3 -2 -2 -2 -3 -3 -4 -4 -4 -4 -4 -4 -4 -3 -2 -2 -2 -2 -2 -1 -2 -3 -3 -3 -2 -2
-3 -3 -3 -3 -3 -3 -3 -4 -4 -5 -4 -4 -4 -5 -6 -3 -3 -3 -2 -2 -2 -2 -4 -4 -4 -4 -3
-4 -4 -4 -4 -4 -3 -3 -4 -4 -4 -4 -5 -5 -5 -5 -5 -5 -4 -4 -4 -3 -3 -3 -3 -3 -4 -4
-5 -5 -5 -4 -4 -5 -5 -5 -5 -5 -5 -5 -6 -6 -6 -6 -5 -5 -5 -5 -5 -4 -3 -3 -3 -4 -4
-5 -5 -5 -5 -6 -6 -6 -6 -6 -6 -6 -6 -6 -6 -6 -6 -6 -6 -5 -5 -5 -5 -4 -4 -4 -4 -4
-6 -6 -6 -6 -7 -7 -7 -7 -7 -6 -6 -6 -6 -6 -6 -6 -6 -6 -6 -6 -5 -5 -5 -5 -5 -5 -5
-7 -7 -7 -7 -7 -7 -7 -7 -7 -7 -7 -7 -6 -7 -7 -6 -6 -6 -6 -6 -6 -5 -5 -5 -5 -5 -5
-7 -7 -7 -7 -7 -7 -7 -8 -8 -8 -8 -7 -7 -8 -7 -7 -6 -6 -6 -6 -5 -5 -5 -5 -5 -5 -5
-7 -8 -8 -8 -8 -8 -8 -8 -8 -8 -8 -7 -7 -8 -8 -8 -6 -5 -5 -5 -6 -6 -6 -6 -5 -5 -5

GFSFLT2_925_temp_051.txt.gz
Temp
5 5 4 4 3 3 3 4 4 3 3 3 3 3 2 2 2 3 3 3 3 3 3 4 4 4 5
3 3 2 2 2 2 2 2 2 2 2 2 2 1 1 2 2 2 2 2 2 2 2 3 3 3 4
2 1 1 0 1 1 1 0 0 0 0 0 0 1 1 1 1 2 2 2 2 2 2 2 2 2 3
0 -0 -0 -1 -1 -1 -1 -1 -0 -1 -1 -0 -0 -0 -0 0 0 0 -0 0 0 0 1 1 1 1 2
-0 -1 -1 -1 -1 -1 -1 -1 -1 -1 -1 -1 -1 -1 -0 -0 -0 -1 -1 -1 -1 -0 -0 0 0 1 1
-1 -1 -2 -2 -2 -2 -2 -2 -2 -2 -2 -1 -1 -1 -1 -1 -1 -1 -2 -2 -1 -1 -0 0 1 1 1
-2 -2 -2 -2 -2 -2 -2 -2 -2 -2 -3 -3 -2 -2 -2 -2 -2 -2 -2 -2 -1 -1 -0 -0 0 0 0
-2 -2 -2 -2 -2 -3 -3 -3 -3 -3 -4 -5 -3 -3 -2 -2 -2 -1 -2 -2 -2 -1 -1 -1 -1 -1 -1
-3 -3 -3 -3 -3 -3 -3 -4 -4 -4 -4 -4 -5 -4 -3 -3 -3 -2 -2 -2 -2 -2 -2 -2 -2 -2 -2
-3 -3 -3 -3 -4 -4 -4 -4 -4 -5 -5 -5 -5 -5 -6 -4 -4 -3 -3 -3 -3 -3 -3 -3 -3 -3 -3
-4 -4 -4 -4 -4 -4 -4 -4 -4 -4 -4 -5 -5 -5 -5 -5 -5 -4 -3 -2 -3 -3 -2 -2 -2 -3 -3
-5 -5 -5 -5 -5 -5 -5 -5 -5 -5 -5 -5 -6 -6 -6 -6 -6 -5 -5 -4 -4 -3 -3 -3 -4 -5 -4
-6 -6 -6 -6 -6 -6 -6 -6 -6 -6 -6 -6 -6 -6 -6 -6 -6 -6 -6 -5 -5 -5 -5 -4 -4 -4 -4
-6 -6 -6 -7 -7 -7 -7 -7 -7 -7 -6 -6 -6 -6 -7 -6 -6 -6 -6 -6 -6 -6 -6 -6 -6 -6 -6
-7 -7 -7 -7 -7 -8 -8 -7 -7 -8 -7 -6 -6 -7 -7 -7 -7 -7 -7 -6 -6 -7 -6 -6 -5 -5 -5
-7 -7 -7 -7 -7 -7 -7 -7 -8 -8 -8 -7 -7 -8 -8 -7 -6 -7 -7 -7 -6 -6 -6 -6 -6 -5 -5
-8 -8 -8 -8 -8 -8 -8 -8 -9 -9 -8 -8 -8 -9 -9 -9 -7 -5 -6 -6 -6 -6 -6 -6 -6 -6 -5

GFSFLT2_925_temp_054.txt.gz
Temp
5 5 5 5 4 3 4 4 4 5 6 5 5 4 4 4 3 3 3 3 4 3 4 4 4 4 4
3 3 3 2 2 2 2 3 4 4 4 3 3 3 3 3 2 2 2 2 2 3 3 3 3 4 4
2 1 1 1 1 1 1 1 2 2 2 2 2 1 1 2 2 2 2 2 2 1 2 2 2 3 3
1 0 0 -0 -0 -1 -0 -0 -0 0 0 0 0 0 -0 0 0 -0 -0 0 0 1 1 1 1 1 2
-0 -0 -1 -1 -1 -1 -1 -1 -1 -1 -1 -1 -1 -1 -1 -1 -0 0 0 -0 -1 -0 0 0 0 1 1
-1 -2 -2 -2 -2 -2 -2 -2 -2 -2 -2 -1 -1 -1 -1 -1 -1 -1 -1 -2 -1 -1 -1 -0 0 1 1
-2 -2 -2 -2 -2 -2 -3 -3 -3 -3 -3 -3 -2 -2 -2 -2 -2 -2 -3 -2 -1 -1 -1 -0 0 0 0
-3 -3 -3 -3 -3 -3 -3 -3 -3 -3 -4 -5 -4 -3 -2 -2 -2 -2 -1 -2 -2 -1 -1 -1 -0 -0 -0
-3 -3 -3 -3 -3 -4 -3 -4 -4 -4 -5 -5 -5 -4 -3 -3 -3 -4 -3 -3 -2 -2 -2 -2 -2 -2 -2
-3 -3 -3 -3 -4 -4 -4 -4 -5 -5 -5 -5 -5 -5 -5 -4 -4 -4 -4 -4 -3 -3 -2 -3 -3 -3 -2
-4 -4 -5 -5 -5 -5 -5 -5 -5 -5 -5 -6 -6 -5 -5 -5 -5 -4 -4 -3 -3 -3 -3 -3 -3 -3 -3
-5 -5 -5 -5 -5 -5 -5 -6 -6 -6 -5 -6 -6 -6 -6 -6 -6 -5 -5 -4 -4 -3 -3 -3 -3 -4 -4
-6 -6 -6 -6 -6 -6 -7 -7 -7 -7 -7 -7 -6 -6 -7 -7 -7 -7 -6 -5 -6 -5 -5 -4 -4 -4 -4
-6 -6 -6 -7 -7 -7 -8 -8 -7 -7 -6 -6 -6 -7 -7 -8 -7 -7 -7 -7 -5 -5 -6 -6 -5 -5 -5
-7 -7 -7 -7 -7 -7 -7 -7 -7 -7 -7 -6 -6 -7 -7 -7 -8 -7 -6 -6 -6 -6 -6 -7 -7 -6 -6
-7 -7 -7 -7 -7 -7 -7 -7 -8 -8 -8 -7 -7 -8 -8 -6 -6 -5 -6 -6 -5 -6 -7 -7 -7 -6 -5
-8 -8 -8 -8 -8 -8 -8 -8 -8 -9 -8 -8 -9 -9 -10 -10 -7 -6 -6 -6 -6 -7 -6 -7 -7 -6 -5

GFSFLT2_925_temp_057.txt.gz
Temp
5 4 4 5 4 4 4 4 4 4 5 5 5 5 5 5 5 4 5 4 4 4 4 4 5 5 5
3 3 3 2 2 2 3 3 3 3 3 4 4 4 4 4 4 4 3 3 3 3 3 3 3 3 3
1 1 1 1 1 1 1 2 2 2 3 3 3 3 3 3 2 2 2 2 2 2 2 2 2 2 3
1 0 -0 -0 -0 -1 -0 1 1 1 1 2 1 1 1 1 1 1 1 1 1 1 1 1 1 2 2
0 0 -0 -0 -1 -2 -1 -1 -1 -1 -1 -1 -0 -0 -0 -0 -0 -0 0 0 -0 -0 0 1 1 1 1
-1 -1 -2 -2 -2 -2 -2 -1 -0 -2 -2 -1 -1 -1 -1 -0 -0 -0 -0 -0 -1 -1 -1 -0 0 0 1
-2 -2 -2 -3 -2 -3 -3 -3 -2 -3 -3 -2 -3 -3 -2 -2 -2 -1 -2 -2 -2 -1 -1 -0 -0 0 0
-3 -3 -3 -3 -3 -3 -3 -3 -3 -4 -4 -3 -4 -3 -3 -3 -2 -2 -2 -2 -2 -1 -1 -1 -0 -0 -0
-3 -3 -3 -3 -4 -4 -4 -4 -3 -4 -5 -5 -4 -4 -4 -4 -3 -4 -3 -3 -2 -2 -2 -2 -1 -1 -1
-3 -3 -3 -4 -4 -4 -4 -5 -5 -4 -5 -5 -5 -5 -3 -4 -4 -3 -3 -3 -4 -4 -3 -3 -3 -2 -2
-4 -4 -4 -5 -5 -5 -5 -5 -5 -5 -5 -6 -6 -5 -5 -4 -4 -4 -5 -4 -3 -4 -3 -3 -3 -4 -3
-5 -5 -5 -5 -5 -5 -5 -6 -6 -6 -6 -6 -7 -7 -6 -6 -5 -4 -5 -5 -5 -5 -5 -4 -3 -3 -4
-6 -6 -6 -6 -6 -6 -6 -7 -7 -7 -6 -7 -7 -7 -7 -7 -6 -6 -6 -5 -6 -6 -4 -3 -4 -4 -4
-6 -6 -6 -6 -7 -7 -7 -7 -7 -7 -6 -6 -6 -7 -8 -8 -7 -7 -6 -6 -5 -5 -5 -6 -6 -5 -5
-7 -7 -7 -7 -7 -7 -7 -7 -7 -7 -7 -7 -6 -7 -7 -7 -8 -7 -6 -6 -6 -6 -7 -6 -6 -5 -5
-7 -7 -7 -8 -8 -8 -8 -7 -7 -7 -8 -8 -9 -9 -8 -6 -5 -5 -6 -6 -6 -6 -7 -7 -6 -6 -5
-7 -7 -7 -8 -8 -8 -8 -8 -8 -8 -8 -8 -9 -10 -8 -7 -6 -7 -7 -6 -6 -6 -6 -6 -6 -5 -5

GFSFLT2_925_temp_060.txt.gz
Temp
6 5 4 4 3 4 3 4 4 4 4 5 5 5 6 6 5 6 6 6 6 6 5 5 5 6 5
3 3 3 3 2 2 2 3 3 3 3 4 4 4 4 4 4 5 5 5 4 4 4 4 4 4 4
3 2 2 2 1 1 1 2 2 2 2 3 3 3 3 3 3 4 4 3 3 3 3 3 3 3 3
2 2 1 -0 -0 -0 2 1 1 1 1 2 2 2 2 2 2 2 2 2 2 2 2 2 2 2 2
2 2 2 1 0 0 2 2 1 -0 1 1 1 1 1 0 0 1 1 1 1 1 1 1 1 1 2
2 3 1 1 1 0 1 1 2 -1 -0 1 0 0 0 0 -1 0 0 0 -0 -1 -0 -0 0 1 1
1 1 1 -0 -2 -1 -1 -1 0 -0 -2 0 -0 -0 -0 -1 -2 -1 -1 -2 -2 -1 -1 -1 -0 -0 0
-1 -1 -2 -2 -2 -3 -2 -2 -1 -1 -3 -1 -1 -1 -1 -1 -2 -2 -3 -2 -2 -2 -1 -1 -0 -0 -0
-3 -3 -3 -3 -3 -2 -2 -2 -1 -1 -2 -3 -1 -2 -1 -1 -2 -2 -2 -2 -2 -2 -1 -1 -1 -1 -0
-3 -3 -4 -4 -3 -4 -3 -3 -2 -2 -3 -3 -3 -3 -2 -1 -2 -2 -2 -3 -2 -2 -3 -3 -2 -2 -2
-3 -3 -4 -4 -4 -5 -5 -5 -4 -3 -4 -4 -5 -4 -3 -3 -2 -2 -2 -2 -3 -3 -3 -3 -3 -3 -2
-4 -3 -4 -4 -5 -5 -6 -6 -6 -5 -5 -6 -6 -5 -5 -5 -3 -2 -2 -3 -3 -3 -4 -4 -4 -4 -3
-3 -4 -5 -5 -5 -6 -6 -7 -7 -7 -7 -6 -7 -6 -7 -6 -5 -4 -4 -3 -4 -4 -4 -4 -4 -4 -4
-4 -4 -5 -6 -6 -6 -6 -6 -6 -5 -6 -6 -7 -7 -7 -6 -6 -6 -5 -5 -4 -4 -4 -4 -4 -4 -4
-5 -5 -5 -5 -5 -5 -5 -5 -5 -5 -4 -5 -6 -7 -7 -7 -7 -6 -5 -4 -4 -4 -5 -5 -4 -4 -4
-6 -6 -6 -6 -5 -6 -6 -6 -5 -5 -5 -5 -6 -6 -6 -5 -6 -6 -5 -4 -4 -5 -5 -5 -5 -5 -4
-7 -7 -7 -7 -7 -6 -6 -6 -6 -5 -5 -6 -6 -7 -6 -5 -4 -5 -6 -5 -5 -5 -5 -5 -4 -4 -4

GFSFLT2_925_temp_063.txt.gz
Temp
7 5 5 5 4 3 3 3 3 3 4 4 5 5 5 5 6 6 6 6 6 6 5 5 6 6 6
5 4 3 3 2 2 2 2 2 3 3 4 4 4 4 5 5 5 5 5 5 5 5 4 4 5 5
3 3 2 3 1 1 1 2 1 2 2 2 3 4 4 4 4 4 4 4 4 4 4 4 4 4 4
3 2 1 1 0 0 3 3 2 1 2 2 2 2 2 2 2 2 2 2 2 2 2 3 3 2 2
3 3 2 2 1 1 2 2 3 1 1 2 1 1 1 1 1 0 1 1 1 1 2 2 2 1 2
2 3 3 2 2 1 1 0 2 0 -0 0 1 0 1 0 0 -0 0 1 1 -0 -0 -0 0 0 1
2 2 1 -0 -1 -1 -1 -1 0 -0 -1 -0 1 -0 0 -0 -1 -1 -1 -1 -0 -1 -1 -1 -0 -0 0
-1 -1 -1 -1 -2 -2 -2 -2 -1 -0 -1 -1 0 -1 -1 -1 -1 -1 -1 -1 -2 -2 -1 -1 -1 -0 0
-2 -2 -2 -2 -2 -2 -2 -2 -1 -0 -2 -2 -1 -1 -1 -1 -1 -1 -1 -2 -1 -2 -1 -1 -1 -0 -0
-2 -2 -3 -3 -3 -3 -3 -3 -2 -2 -2 -3 -3 -3 -3 -0 -1 -1 -1 -2 -2 -2 -2 -2 -2 -2 -1
-3 -3 -3 -3 -3 -4 -4 -4 -4 -3 -3 -4 -5 -4 -3 -3 -2 -2 -2 -2 -2 -2 -2 -3 -3 -2 -3
-3 -2 -2 -3 -4 -4 -5 -4 -5 -5 -4 -5 -6 -5 -5 -5 -5 -2 -2 -2 -2 -3 -3 -3 -3 -3 -3
-3 -3 -3 -4 -4 -4 -5 -6 -6 -5 -5 -5 -7 -6 -6 -6 -6 -6 -5 -3 -3 -3 -3 -3 -4 -4 -4
-3 -3 -4 -5 -5 -5 -5 -5 -5 -5 -5 -5 -6 -6 -7 -7 -6 -6 -6 -5 -3 -4 -4 -4 -4 -4 -4
-4 -4 -4 -4 -4 -5 -5 -5 -5 -5 -4 -4 -5 -5 -6 -7 -7 -7 -6 -5 -5 -4 -4 -4 -5 -5 -4
-5 -5 -5 -5 -5 -5 -5 -6 -6 -5 -4 -4 -5 -5 -6 -6 -6 -5 -6 -6 -5 -4 -4 -5 -5 -5 -5
-5 -6 -6 -6 -6 -6 -6 -6 -5 -5 -5 -5 -5 -6 -7 -7 -5 -4 -5 -5 -5 -5 -5 -5 -5 -5 -4

GFSFLT2_925_temp_066.txt.gz
Temp
6 5 4 4 4 3 3 3 3 3 3 4 4 5 5 6 6 6 6 6 6 6 7 7 6 6 7
5 4 3 2 2 2 2 2 2 2 3 3 4 4 4 4 5 5 5 5 5 4 5 5 5 5 5
4 3 2 3 1 1 1 2 2 2 2 2 3 3 3 3 3 4 4 4 4 4 4 4 4 4 4
3 3 2 1 0 1 2 2 2 2 2 2 2 2 2 2 2 2 2 2 2 2 2 2 3 3 3
4 3 3 2 1 1 1 1 1 1 2 1 1 1 1 1 1 1 1 1 1 2 2 2 2 2 2
3 2 2 2 1 1 0 -0 -0 0 0 1 1 1 0 0 0 0 0 1 1 1 1 1 1 1 1
1 1 0 0 -0 -1 -1 -1 -1 -0 -1 -0 0 0 -0 -0 -1 -1 -1 -1 -1 -1 -1 -1 -1 -0 -0
-0 -1 -1 -1 -1 -2 -2 -2 -1 -1 -1 -2 -1 -1 -0 -1 -1 -1 -1 -1 -1 -1 -1 -1 -1 -1 -0
-1 -1 -1 -1 -2 -2 -2 -2 -2 -1 -2 -2 -2 -2 -1 -1 -1 -1 -1 -2 -1 -1 -2 -1 -1 -1 -1
-2 -2 -2 -2 -2 -2 -3 -3 -3 -3 -3 -2 -3 -3 -3 -1 -1 -1 -1 -1 -2 -2 -2 -2 -2 -2 -2
-2 -2 -3 -3 -3 -3 -3 -3 -4 -3 -4 -4 -4 -4 -4 -3 -3 -2 -2 -2 -2 -2 -2 -2 -2 -2 -2
-3 -3 -3 -3 -3 -4 -4 -4 -4 -4 -4 -5 -5 -5 -5 -5 -5 -3 -2 -2 -2 -2 -3 -3 -3 -3 -3
-3 -3 -3 -3 -4 -4 -4 -4 -5 -4 -5 -5 -5 -6 -7 -6 -6 -6 -6 -4 -3 -2 -2 -2 -3 -3 -3
-3 -3 -3 -4 -4 -4 -5 -5 -5 -5 -5 -4 -5 -5 -7 -7 -7 -7 -7 -6 -3 -4 -4 -4 -3 -4 -4
-4 -4 -4 -4 -4 -4 -5 -5 -5 -5 -5 -5 -4 -5 -5 -5 -7 -7 -6 -6 -5 -4 -5 -5 -4 -5 -5
-4 -4 -4 -5 -4 -5 -5 -5 -5 -5 -5 -5 -5 -5 -6 -6 -6 -5 -6 -5 -4 -4 -5 -5 -4 -4 -4
-4 -5 -5 -5 -5 -5 -6 -6 -6 -6 -6 -6 -5 -5 -7 -6 -6 -5 -5 -5 -4 -5 -5 -5 -6 -5 -5

GFSFLT2_925_temp_069.txt.gz
Temp
6 5 5 5 5 4 3 3 3 2 3 3 4 5 5 6 6 6 6 7 7 7 7 7 7 7 7
4 4 4 4 3 2 2 2 2 2 2 2 3 4 5 5 5 5 5 5 6 6 6 6 6 6 6
4 3 3 3 2 1 1 2 2 2 2 2 3 3 3 3 4 4 4 4 4 4 5 5 5 5 5
4 3 3 1 1 1 1 1 1 2 2 2 2 2 2 2 2 2 2 2 2 2 2 2 3 3 3
3 3 3 2 1 1 1 1 1 1 1 1 1 1 1 1 1 1 1 1 1 2 2 2 2 2 3
3 3 1 1 1 0 0 -0 -0 -0 0 1 0 0 0 0 0 0 0 0 1 1 1 1 1 1 1
1 1 1 1 0 -0 -1 -1 -1 -1 -1 -0 -0 -0 -0 -1 -1 -0 -0 0 -1 -1 -1 -1 -1 -1 -0
0 0 -0 -0 -1 -1 -1 -2 -2 -1 -1 -1 -1 -1 -1 -1 -1 -1 -1 -1 -1 -1 -1 -1 -1 -1 -1
-1 -1 -1 -2 -2 -2 -2 -2 -2 -2 -2 -2 -2 -2 -1 -1 -1 -1 -1 -2 -2 -2 -1 -1 -1 -1 -1
-2 -2 -2 -2 -2 -2 -2 -3 -3 -3 -3 -3 -3 -3 -2 -1 -1 -1 -1 -1 -2 -2 -2 -2 -2 -2 -1
-2 -2 -2 -3 -3 -3 -3 -3 -3 -3 -4 -3 -4 -4 -4 -4 -2 -2 -2 -2 -2 -2 -2 -2 -2 -2 -2
-2 -2 -3 -3 -3 -3 -3 -3 -3 -3 -4 -4 -4 -5 -5 -5 -5 -3 -2 -2 -2 -2 -2 -3 -3 -3 -3
-3 -3 -3 -3 -3 -4 -4 -4 -4 -4 -5 -5 -5 -5 -6 -6 -6 -6 -6 -3 -3 -2 -2 -3 -3 -3 -3
-3 -3 -3 -3 -4 -4 -4 -4 -5 -4 -4 -5 -5 -5 -5 -6 -6 -7 -7 -6 -3 -3 -4 -3 -3 -3 -4
-3 -4 -4 -4 -4 -4 -4 -5 -5 -5 -5 -4 -5 -5 -5 -6 -6 -6 -6 -6 -4 -4 -5 -5 -4 -4 -4
-3 -4 -4 -4 -4 -4 -5 -5 -5 -5 -5 -5 -5 -5 -6 -6 -5 -5 -7 -5 -5 -5 -5 -6 -5 -4 -4
-3 -4 -4 -4 -5 -5 -5 -5 -6 -6 -6 -6 -6 -6 -9 -7 -6 -6 -6 -5 -6 -6 -5 -6 -6 -5 -5

GFSFLT2_925_temp_072.txt.gz
Temp
5 5 4 4 4 4 5 3 3 3 3 3 4 5 6 6 7 7 7 8 9 9 9 8 8 8 8
4 4 4 3 4 4 3 2 2 2 2 2 2 3 4 5 5 6 6 6 7 7 6 7 7 7 7
4 3 3 3 3 2 1 2 2 2 2 2 2 2 2 2 4 4 4 5 5 5 5 5 5 6 6
3 3 3 2 2 1 1 1 1 1 2 2 2 2 1 1 2 2 3 3 3 3 3 4 4 4 4
3 3 2 1 1 1 1 1 1 1 1 1 1 1 1 1 1 1 2 2 2 2 2 2 2 2 3
3 3 2 2 1 1 0 0 -0 -0 0 1 0 0 0 0 -0 -0 -0 -0 1 1 2 2 1 1 1
2 2 1 1 1 0 -0 -0 -0 -1 -1 -1 -0 -0 -0 -0 -1 -1 -1 -0 -1 -0 0 1 1 1 1
1 1 1 0 -0 -0 -1 -1 -2 -2 -1 -1 -1 -1 -1 -1 -1 -1 -1 -1 -1 -1 -1 -1 -1 -1 -1
-1 -1 -1 -1 -1 -1 -2 -2 -2 -2 -2 -2 -2 -2 -1 -1 -1 -1 -2 -2 -2 -2 -1 -1 -1 -1 -1
-1 -2 -2 -2 -2 -2 -2 -2 -3 -3 -3 -2 -3 -2 -2 -2 -2 -1 -1 -1 -1 -2 -2 -2 -2 -2 -2
-2 -2 -2 -2 -2 -2 -3 -3 -3 -3 -3 -3 -3 -3 -3 -3 -2 -2 -2 -2 -2 -1 -1 -1 -2 -3 -3
-2 -2 -2 -3 -3 -3 -3 -3 -3 -3 -4 -4 -4 -4 -4 -4 -4 -3 -3 -2 -2 -2 -2 -2 -3 -3 -3
-3 -3 -3 -3 -3 -3 -4 -4 -4 -4 -4 -4 -5 -5 -5 -6 -5 -5 -6 -3 -3 -3 -3 -3 -3 -2 -2
-3 -3 -3 -3 -3 -4 -4 -4 -5 -4 -4 -5 -5 -5 -5 -5 -6 -6 -6 -6 -3 -3 -4 -3 -3 -3 -3
-3 -3 -3 -3 -4 -4 -4 -5 -5 -5 -5 -5 -5 -5 -5 -5 -6 -7 -6 -6 -4 -4 -5 -5 -3 -3 -3
-3 -3 -3 -4 -4 -4 -4 -5 -5 -5 -5 -5 -5 -6 -6 -5 -4 -6 -7 -7 -4 -5 -6 -6 -5 -3 -3
-3 -3 -3 -4 -4 -5 -5 -5 -5 -6 -6 -6 -6 -7 -10 -8 -5 -6 -5 -5 -6 -6 -6 -6 -6 -5 -5

GFSFLT2_925_temp_075.txt.gz
Temp
6 5 5 5 5 5 4 4 4 3 4 4 4 5 6 7 6 7 7 8 7 8 8 8 9 9 9
4 4 4 3 4 3 3 3 2 2 2 3 3 3 4 5 5 6 6 6 6 7 7 6 6 7 7
4 3 3 3 2 2 3 2 2 2 2 2 2 2 2 3 4 4 5 5 5 5 5 6 6 6 5
4 3 3 2 2 2 1 1 1 2 2 2 2 2 1 1 2 3 3 4 3 4 4 4 5 5 5
3 2 2 1 2 1 1 1 1 1 1 1 1 2 1 1 1 1 2 2 2 2 2 3 3 3 3
3 3 2 2 2 1 0 -0 -0 -0 0 1 1 1 1 0 0 0 0 0 1 2 2 2 2 2 2
3 3 2 2 1 0 0 0 -0 -1 -1 -0 -1 -0 -0 -0 -0 -1 -0 -0 0 0 1 1 1 1 1
1 1 1 1 0 0 -0 -1 -1 -1 -1 -1 -1 -1 -1 -0 -1 -1 -1 -1 -1 -0 -1 -0 -0 -1 -1
-0 -0 -0 -0 -1 -1 -1 -2 -2 -2 -2 -2 -2 -1 -1 -1 -1 -2 -1 -1 -2 -2 -1 -1 -1 -1 -1
-1 -1 -1 -2 -2 -2 -2 -2 -2 -3 -2 -2 -3 -2 -2 -2 -2 -2 -2 -1 -1 -1 -1 -1 -2 -1 -1
-2 -2 -2 -2 -2 -2 -2 -2 -2 -2 -3 -3 -3 -3 -3 -2 -2 -2 -2 -2 -2 -2 -1 -1 -2 -2 -2
-2 -2 -2 -2 -2 -3 -3 -3 -3 -3 -3 -3 -3 -3 -4 -4 -3 -3 -3 -3 -2 -2 -2 -2 -2 -2 -2
-2 -2 -2 -2 -3 -3 -3 -3 -3 -3 -3 -4 -4 -5 -5 -5 -4 -4 -4 -3 -3 -3 -3 -3 -2 -2 -2
-2 -2 -3 -3 -3 -3 -4 -4 -4 -4 -4 -4 -5 -5 -5 -5 -6 -5 -5 -5 -3 -4 -4 -3 -3 -3 -3
-3 -3 -3 -3 -3 -4 -4 -4 -4 -4 -4 -5 -5 -5 -5 -5 -6 -5 -5 -5 -4 -4 -5 -4 -3 -3 -3
-3 -3 -3 -4 -4 -4 -4 -5 -5 -5 -5 -5 -5 -6 -6 -4 -4 -5 -7 -7 -4 -5 -6 -6 -4 -3 -3
-2 -3 -3 -3 -4 -4 -4 -5 -5 -5 -5 -5 -6 -6 -9 -7 -5 -6 -6 -6 -6 -6 -6 -6 -6 -5 -5

GFSFLT2_925_temp_078.txt.gz
Temp
6 5 5 5 5 5 5 5 5 4 4 4 4 4 4 6 6 7 7 8 8 8 9 9 10 11 10
5 5 4 4 4 4 4 4 3 3 3 3 3 3 3 5 5 5 6 6 7 6 7 7 8 8 8
5 4 4 3 3 3 3 3 2 2 2 2 2 2 3 3 4 4 4 5 6 6 7 6 7 7 7
4 3 3 3 2 2 2 2 2 2 2 2 2 2 1 1 3 3 4 4 4 4 5 5 5 5 5
3 2 2 1 1 2 1 1 1 1 1 1 2 2 1 1 2 2 2 3 3 3 4 5 6 5 5
3 3 2 2 2 2 1 -0 0 0 0 1 1 1 1 1 1 1 1 1 2 2 2 2 3 3 3
2 2 2 3 2 1 0 0 0 -0 -0 -0 -0 0 0 -0 -0 -0 -0 -0 -0 0 1 1 1 2 2
1 2 2 1 1 1 1 -0 -1 -1 -1 -1 -1 -1 -1 -1 -1 -1 -1 -1 -1 -1 -1 -0 -0 -0 -0
0 -0 0 -0 -0 0 -0 -1 -2 -2 -2 -2 -2 -1 -1 -1 -1 -2 -1 -1 -1 -2 -1 -1 -1 -1 -0
-1 -0 -1 -2 -1 -1 -1 -2 -2 -3 -2 -2 -2 -2 -2 -2 -2 -2 -1 -1 -1 -1 -1 -1 -1 -1 -1
-1 -1 -1 -1 -1 -1 -2 -2 -2 -2 -2 -2 -2 -3 -2 -2 -2 -2 -2 -1 -1 -2 -2 -1 -2 -2 -1
-2 -2 -2 -2 -2 -2 -2 -2 -2 -2 -2 -2 -2 -3 -3 -3 -3 -3 -2 -2 -2 -2 -2 -2 -2 -2 -2
-2 -2 -2 -2 -3 -3 -3 -3 -3 -3 -3 -3 -3 -3 -4 -4 -4 -4 -4 -3 -3 -2 -3 -3 -3 -3 -2
-2 -2 -2 -3 -3 -3 -3 -4 -4 -4 -4 -4 -4 -4 -4 -4 -5 -4 -4 -4 -3 -3 -4 -4 -3 -3 -3
-2 -2 -3 -3 -3 -3 -4 -4 -4 -4 -4 -4 -5 -5 -5 -5 -5 -4 -3 -4 -3 -4 -4 -4 -2 -3 -3
-2 -3 -3 -3 -3 -4 -4 -4 -4 -4 -4 -4 -5 -5 -5 -4 -3 -4 -5 -5 -4 -4 -5 -5 -4 -3 -3
-2 -2 -2 -3 -4 -4 -4 -5 -5 -5 -5 -5 -6 -6 -8 -7 -4 -4 -5 -5 -5 -6 -5 -6 -5 -5 -5

GFSFLT2_925_temp_081.txt.gz
Temp
8 7 6 6 6 5 5 5 5 4 4 4 4 4 4 5 6 7 7 7 8 8 9 10 11 12 12
6 6 5 5 4 4 4 4 4 3 3 3 3 3 4 3 6 6 6 7 8 7 8 8 9 10 10
5 5 4 4 3 3 3 3 3 2 2 2 2 3 3 2 4 5 5 5 6 7 7 7 7 8 8
5 4 4 3 3 2 2 2 2 2 2 2 2 2 1 1 2 3 4 5 4 5 6 6 6 6 7
3 3 3 2 2 2 2 2 1 2 1 2 2 2 1 1 2 2 2 3 4 4 4 4 4 5 6
3 3 3 2 2 2 1 0 2 1 1 1 1 1 1 1 1 1 1 1 2 3 3 3 4 4 4
2 2 2 3 2 1 1 1 0 0 0 -0 0 0 0 0 0 -0 -0 -0 0 1 2 2 2 2 2
2 2 2 2 2 2 1 0 -1 -0 -0 -1 -1 -1 -0 -0 -0 -1 -1 -1 -0 -1 -0 -0 0 1 1
1 1 1 1 1 1 -0 -1 -2 -2 -1 -1 -1 -1 -1 -1 -1 -2 -1 -1 -1 -1 -1 -1 -1 -0 -0
-1 -1 -1 -1 -1 -0 -0 -1 -2 -2 -2 -2 -2 -1 -2 -2 -1 -1 -1 -1 -1 -1 -1 -1 -1 -1 -0
-1 -1 -1 -2 -1 -1 -1 -1 -1 -1 -2 -2 -2 -2 -2 -2 -2 -2 -2 -2 -2 -1 -1 -1 -1 -1 -1
-2 -2 -2 -2 -2 -2 -2 -2 -2 -2 -2 -2 -2 -2 -2 -3 -3 -2 -2 -2 -2 -2 -2 -2 -1 -1 -1
-3 -2 -2 -2 -2 -3 -3 -3 -3 -3 -2 -3 -3 -3 -3 -3 -3 -3 -3 -2 -2 -2 -2 -2 -2 -2 -2
-2 -2 -2 -2 -3 -3 -3 -3 -3 -3 -3 -3 -3 -4 -4 -4 -4 -4 -3 -3 -2 -2 -3 -3 -3 -3 -3
-2 -2 -3 -3 -3 -3 -3 -4 -4 -4 -4 -4 -4 -4 -4 -4 -5 -3 -4 -4 -3 -3 -4 -4 -3 -2 -2
-2 -2 -3 -3 -3 -3 -4 -4 -4 -4 -5 -5 -5 -5 -5 -3 -3 -5 -5 -4 -3 -4 -4 -5 -5 -3 -3
-2 -2 -3 -3 -4 -4 -4 -4 -5 -5 -5 -5 -5 -6 -5 -4 -4 -4 -4 -4 -4 -5 -5 -5 -5 -5 -4

GFSFLT2_925_temp_084.txt.gz
Temp
8 8 8 7 6 5 5 5 5 5 5 4 4 4 5 5 5 6 7 8 8 8 8 9 10 11 12
7 7 6 5 5 5 4 4 4 4 3 3 3 4 4 4 3 5 6 7 7 8 8 8 9 10 11
7 5 5 5 4 4 3 3 3 3 3 3 3 3 3 3 3 4 5 5 6 7 7 7 8 8 8
6 4 4 4 3 3 2 2 3 2 2 2 2 3 2 2 2 3 4 4 5 5 6 6 6 7 7
4 3 3 3 2 3 2 2 2 2 1 2 1 1 1 2 2 2 2 3 4 4 5 5 6 6 6
3 3 3 3 3 2 2 1 2 1 1 2 1 1 0 0 1 1 1 2 2 3 3 3 4 4 5
3 3 3 3 3 1 1 1 2 0 0 1 0 0 -0 0 1 0 0 0 0 1 2 2 2 2 2
2 2 2 2 2 2 1 1 -0 -0 1 1 -1 0 -1 -1 0 -0 -0 -1 -0 -1 -0 0 1 1 1
1 1 2 2 1 0 0 1 1 0 -1 -1 -1 -0 -1 -1 -1 -1 -1 -1 -1 -1 -1 -1 -1 -0 0
-1 -0 -0 -0 0 -0 -0 -0 1 0 -1 -1 -1 -1 -0 -2 -2 -2 -2 -1 -1 -1 -1 -1 -1 -1 -1
-1 -1 -1 -1 -2 -1 -1 -1 -1 -1 -2 -2 -2 -2 -2 -1 -2 -2 -2 -1 -2 -1 -1 -1 -1 -1 -1
-0 -0 -1 -1 -2 -2 -1 -2 -1 -1 -2 -2 -2 -2 -2 -2 -1 -2 -2 -2 -2 -1 -1 -1 -1 -1 -1
-0 -1 -2 -2 -2 -2 -2 -2 -2 -2 -2 -2 -2 -2 -2 -2 -1 -2 -2 -3 -2 -2 -2 -2 -2 -2 -1
-1 -1 -3 -2 -3 -3 -3 -3 -3 -4 -3 -3 -3 -3 -3 -3 -4 -3 -3 -3 -3 -3 -3 -3 -2 -2 -2
-2 -2 -2 -3 -3 -4 -3 -3 -3 -2 -3 -4 -3 -3 -4 -4 -4 -3 -3 -3 -3 -4 -4 -4 -4 -3 -3
-2 -2 -2 -3 -3 -4 -4 -4 -3 -3 -3 -4 -5 -5 -4 -3 -3 -4 -3 -3 -4 -4 -4 -5 -4 -3 -4
-2 -2 -3 -3 -3 -3 -4 -3 -3 -3 -3 -4 -4 -4 -2 -1 -3 -3 -4 -4 -4 -4 -4 -4 -4 -4 -4

GFSFLT2_925_temp_087.txt.gz
Temp
10 9 9 7 6 6 6 6 6 5 5 5 5 5 5 5 6 5 5 7 7 8 9 8 9 11 12
8 8 8 6 6 5 5 5 5 5 5 4 4 4 4 4 4 4 6 6 7 7 8 8 8 9 11
7 6 5 5 4 4 4 4 4 4 4 3 3 3 3 3 3 3 4 5 6 7 7 7 7 7 9
7 5 5 4 4 4 3 3 3 3 3 3 2 2 2 3 3 3 3 5 5 6 6 6 6 7 7
5 4 4 3 3 3 3 3 2 2 2 2 2 2 2 2 2 3 2 3 4 5 5 5 5 6 6
4 4 4 4 4 3 2 1 1 2 2 2 2 2 1 1 1 2 2 2 2 4 4 4 5 5 5
3 3 3 4 3 2 2 2 2 2 1 2 2 1 1 1 1 1 1 1 0 2 2 2 3 3 4
3 3 2 3 3 3 2 1 1 1 1 1 1 0 0 -0 0 -0 0 0 -0 -0 0 1 1 2 2
2 2 2 2 2 2 1 1 2 1 -0 0 0 -0 -1 -1 -1 -1 -0 -0 -1 -1 -1 -0 -0 0 1
1 1 1 1 1 1 1 1 2 1 -0 -0 -0 -0 -1 -1 -1 -1 -1 -1 -1 -1 -1 -1 -0 -0 -0
0 -0 -1 -0 -0 -0 -0 -0 0 -0 -1 -1 -1 -1 -1 -1 -2 -2 -1 -1 -1 -1 -1 -1 -0 -0 -0
0 -0 -0 -1 -1 -1 -1 -1 -0 -0 -1 -1 -1 -1 -1 -1 -1 -2 -1 -1 -1 -2 -2 -1 -1 -1 -0
0 0 -0 -1 -2 -2 -2 -1 -1 -1 -1 -2 -1 -1 -1 -1 -1 -2 -2 -2 -2 -2 -1 -1 -1 -1 -1
-0 -0 -1 -2 -2 -2 -2 -2 -3 -3 -2 -2 -2 -2 -2 -2 -2 -2 -2 -2 -2 -2 -2 -2 -1 -1 -1
-0 -1 -2 -2 -3 -3 -3 -3 -3 -2 -3 -3 -2 -3 -3 -3 -3 -3 -2 -3 -3 -3 -3 -2 -2 -2 -2
-1 -1 -2 -2 -3 -3 -3 -3 -3 -2 -2 -3 -3 -4 -4 -2 -2 -2 -2 -3 -3 -3 -3 -3 -3 -2 -2
-2 -2 -2 -2 -2 -3 -3 -3 -3 -2 -3 -3 -4 -4 -4 -4 -2 -2 -3 -3 -4 -3 -4 -4 -4 -3 -3

GFSFLT2_925_temp_090.txt.gz
Temp
10 8 8 8 7 6 7 7 6 6 6 6 6 6 5 5 5 5 5 5 5 6 7 8 8 9 12
9 9 7 6 6 6 6 6 5 5 5 5 5 5 4 4 4 4 5 5 6 6 7 7 8 7 10
7 8 7 6 5 5 5 5 5 4 4 4 4 4 3 3 3 3 4 5 5 5 6 7 7 8 7
7 6 6 5 4 4 4 4 4 4 3 3 3 3 3 3 3 3 3 4 5 5 5 6 6 7 7
6 5 5 4 4 4 4 3 3 3 3 3 3 3 2 2 2 2 3 3 4 4 5 5 5 6 6
5 5 4 4 4 4 3 2 2 3 2 3 2 2 2 1 2 2 2 2 2 3 3 4 4 5 6
4 4 4 4 4 3 3 2 2 3 2 2 2 2 1 1 1 1 1 1 1 1 2 2 3 4 4
4 4 3 3 4 4 4 2 1 2 1 1 1 1 1 1 0 0 0 0 0 -0 0 1 1 1 2
3 3 3 3 3 3 2 1 0 1 1 1 0 0 -0 -0 -0 -0 -0 -0 -1 -1 -0 -0 0 1 1
2 2 2 2 1 2 2 2 2 -0 0 0 -0 0 -1 -1 -1 -1 -1 -1 -1 -1 -1 -1 -0 0 1
1 1 1 1 1 1 1 1 1 1 0 -0 -1 -1 -1 -1 -1 -1 -1 -1 -1 -1 -1 -0 0 -0 0
0 -0 -1 -1 -0 -0 -0 0 0 1 0 0 -0 -0 -1 -1 -1 -1 -1 -1 -1 -1 -1 -1 -0 -0 -0
-0 -0 -0 -1 -1 -1 -1 -1 -1 -1 -1 -0 -0 -1 -1 -1 -1 -1 -2 -1 -1 -1 -1 -1 -0 -0 -0
0 0 -0 -1 -1 -1 -2 -2 -2 -3 -2 -2 -1 -1 -1 -1 -1 -1 -1 -1 -2 -2 -2 -1 -1 -1 -0
-0 -0 -1 -1 -2 -2 -2 -3 -3 -3 -3 -2 -2 -2 -2 -2 -2 -2 -2 -2 -2 -2 -2 -1 -1 -1 -1
-0 -0 -1 -2 -2 -3 -3 -3 -3 -2 -2 -3 -3 -3 -3 -2 -2 -2 -2 -2 -3 -3 -3 -2 -1 -1 -1
-1 -1 -1 -2 -3 -3 -3 -3 -3 -2 -2 -3 -3 -3 -7 -7 -2 -2 -3 -3 -3 -3 -3 -3 -3 -3 -3

GFSFLT2_925_temp_093.txt.gz
Temp
9 9 8 8 7 6 6 7 7 7 6 6 6 7 6 5 5 5 5 4 5 5 6 6 7 7 8
9 8 7 7 6 6 6 6 6 6 6 5 6 6 4 4 4 4 4 5 5 5 6 6 6 7 7
8 8 7 6 6 5 5 5 5 5 5 5 5 4 4 4 4 4 3 4 5 5 5 6 6 7 7
8 7 7 6 5 5 4 4 4 4 4 4 4 4 3 3 3 3 3 3 4 4 5 5 5 6 7
7 6 5 5 4 5 4 4 4 3 3 3 3 3 3 2 2 2 3 3 3 4 4 4 5 5 6
6 5 5 6 5 5 4 3 2 4 3 3 3 3 2 2 2 2 2 2 2 2 2 3 4 5 5
7 6 5 5 5 4 3 3 3 3 2 2 2 2 2 1 1 1 1 1 1 1 1 2 2 3 4
6 5 4 5 4 5 4 3 2 2 2 2 2 1 1 1 1 1 1 0 0 0 0 1 1 1 2
4 4 4 4 4 3 2 1 0 1 1 1 1 1 0 0 0 -0 -0 0 -0 -1 -1 -1 0 1 1
3 2 2 3 3 3 3 2 3 1 1 1 0 0 -1 -1 -1 -1 -1 -1 -1 -1 -1 -0 0 0 1
2 2 2 1 1 2 2 2 2 1 1 1 -0 -1 -1 -1 -1 -1 -1 -1 -1 -0 -1 -0 0 0 1
1 1 0 0 0 1 1 1 1 1 1 1 0 -0 -1 -2 -2 -1 -1 -1 -1 -1 -1 -0 0 0 0
0 0 1 1 -0 -1 -0 -0 -0 -0 0 0 -0 -0 -1 -0 -1 -1 -2 -1 -1 -1 -1 -1 -0 0 0
1 1 0 -1 -1 -1 -1 -1 -1 -2 -2 -1 -1 -1 -1 -1 -1 -1 -1 -1 -1 -2 -1 -1 -1 -0 -0
1 -0 -1 -1 -1 -1 -1 -2 -2 -3 -3 -3 -2 -2 -2 -1 -1 -1 -1 -2 -1 -2 -1 -1 -1 -1 -0
0 -0 -1 -2 -2 -2 -2 -2 -3 -3 -2 -3 -3 -3 -3 -2 -1 -1 -2 -2 -2 -3 -2 -2 -1 -1 -1
-1 -1 -1 -2 -3 -3 -3 -3 -3 -3 -3 -3 -3 -3 -6 -5 -2 -2 -2 -2 -2 -3 -3 -3 -2 -2 -2

GFSFLT2_925_temp_096.txt.gz
Temp
10 9 9 9 9 9 8 8 7 7 7 6 6 7 6 6 6 6 6 5 4 5 5 5 6 6 7
8 7 8 7 8 8 7 6 7 7 7 7 6 5 5 5 5 5 5 4 5 5 5 5 5 5 6
8 7 7 7 6 6 6 5 6 6 6 6 5 4 4 4 4 4 4 4 4 5 5 5 5 6 6
8 7 6 6 6 5 5 5 5 5 4 4 4 4 4 3 3 3 4 4 4 4 4 4 5 5 6
7 6 5 4 4 5 5 4 4 4 4 4 4 3 3 3 3 3 3 3 3 4 4 3 4 5 5
6 6 5 6 7 6 4 3 2 4 3 3 3 3 3 3 2 2 2 2 2 3 2 2 3 4 4
7 8 6 7 7 5 4 3 4 4 3 3 2 2 2 2 2 1 1 1 2 1 1 1 2 3 4
8 8 8 7 7 6 6 4 3 3 3 2 2 2 2 2 1 1 1 1 1 0 0 0 0 1 2
7 7 6 6 5 4 3 2 0 1 1 2 1 1 1 1 1 1 0 0 0 -0 -1 -1 0 1 1
5 5 5 4 4 4 4 2 1 0 2 1 1 1 -0 -0 0 -0 -1 -0 -1 -1 -1 -1 -0 0 1
4 3 3 3 2 3 3 4 3 3 2 1 0 -0 -0 -1 -1 -1 -1 -1 -1 -1 -1 -0 -0 0 0
2 1 1 1 1 2 2 2 2 3 2 1 1 0 -0 -2 -1 -1 -1 -1 -1 -1 -1 -0 -0 -0 0
0 0 1 2 1 0 1 1 1 1 1 1 1 1 -0 0 -1 -2 -2 -1 -1 -1 -1 -1 -1 -0 -0
-0 1 1 -0 -1 -0 -1 -1 -1 -1 -1 -0 -0 -0 -1 -1 -0 -1 -1 -0 -1 -1 -1 -1 -1 -0 -0
0 0 -1 -1 -1 -1 -1 -2 -2 -3 -3 -3 -2 -2 -1 -1 -1 -1 -1 -1 -1 -1 -2 -1 -1 -1 -0
-1 -1 -1 -2 -2 -2 -2 -2 -2 -2 -3 -3 -3 -3 -3 -2 -1 -1 -1 -1 -2 -2 -2 -2 -1 -1 -0
-2 -2 -2 -2 -3 -3 -3 -3 -3 -3 -3 -3 -4 -3 -9 -7 -2 -2 -1 -1 -2 -3 -2 -2 -2 -2 -1

GFSFLT2_925_temp_099.txt.gz
Temp
9 9 9 9 10 9 9 9 9 8 8 7 7 7 7 7 7 7 7 6 6 4 4 5 5 6 6
7 8 8 8 9 9 8 8 8 8 7 7 7 7 7 5 6 5 5 5 4 5 5 4 5 5 5
7 7 7 8 7 7 7 7 7 7 6 7 7 6 5 4 5 4 4 4 5 5 4 5 5 6 6
8 7 7 6 7 6 6 6 6 6 6 6 5 4 4 4 4 4 4 4 3 4 4 4 5 5 6
7 6 5 5 5 5 5 5 5 5 5 4 4 4 4 4 4 3 3 3 3 3 4 4 5 5 5
6 7 5 5 5 5 5 4 3 4 4 3 3 3 4 3 3 3 2 2 2 3 3 2 3 4 4
7 7 6 7 7 5 4 4 4 5 3 3 3 3 3 3 2 2 2 2 2 2 2 1 1 1 3
9 10 10 9 9 8 7 6 4 4 3 2 3 2 2 2 2 1 1 1 1 1 0 0 0 0 1
8 8 8 7 8 6 5 3 1 2 2 3 1 1 1 1 1 1 1 1 0 -0 -1 -1 -0 1 1
7 6 6 7 7 7 6 3 2 1 2 2 1 2 -0 0 0 1 0 -0 -0 -1 -1 -1 0 0 1
5 5 5 5 5 5 5 5 3 3 3 2 0 0 1 -1 -1 -1 -0 -0 -1 -1 -1 -0 -0 0 1
3 3 3 3 3 3 3 3 3 4 4 3 2 1 0 -2 -2 -2 -1 -1 -1 -1 -1 -1 -1 -0 0
1 2 2 3 2 2 1 1 1 2 2 2 2 1 1 1 -1 -2 -2 -1 -1 -1 -1 -1 -1 -0 0
1 0 1 1 1 1 -0 -0 -0 -0 -0 0 1 1 0 0 1 -1 -1 -0 -1 -1 -1 -1 -1 -0 0
-0 -0 -0 -0 -1 -1 -0 -1 -1 -3 -3 -2 -1 -1 -1 -0 -1 -0 -1 -1 -1 -1 -2 -1 -1 -1 -0
-1 -1 -2 -2 -3 -3 -2 -2 -2 -3 -4 -3 -3 -3 -3 -2 -1 -1 -1 -1 -1 -2 -2 -1 -1 -1 -0
-1 -2 -2 -3 -3 -4 -3 -3 -3 -3 -3 -3 -3 -3 -8 -6 -3 -1 -1 -1 -1 -2 -2 -2 -1 -1 -1

GFSFLT2_925_temp_102.txt.gz
Temp
9 9 9 10 10 9 10 9 9 9 9 9 9 9 9 8 8 8 7 7 7 7 7 6 5 5 6
8 8 9 9 10 10 9 9 8 9 8 8 8 7 7 6 7 7 6 6 7 7 7 6 6 5 5
7 8 8 8 8 8 8 7 8 7 8 7 7 6 6 5 5 5 5 5 6 6 6 6 5 5 6
8 7 7 7 7 6 6 6 6 6 6 6 6 6 5 5 4 4 4 4 4 5 5 5 5 5 5
7 6 6 5 6 6 5 5 6 6 5 5 6 5 4 4 4 3 4 4 4 4 4 5 5 5 5
8 7 6 6 6 5 5 5 3 5 5 5 5 4 4 3 3 3 3 3 3 3 3 4 3 3 4
9 9 7 7 7 5 5 5 5 6 4 4 4 3 3 3 3 3 3 3 2 2 3 2 1 2 1
9 9 9 8 8 8 7 5 4 4 3 2 2 2 2 2 2 2 2 2 2 2 1 1 -0 0 0
8 8 8 8 7 7 5 3 1 1 2 4 1 1 1 2 2 1 1 1 1 1 0 -0 -0 1 1
7 7 7 7 8 8 8 3 1 0 2 3 1 2 -0 0 1 1 -0 -0 0 -0 -1 -0 0 1 1
6 6 6 6 7 6 7 6 4 5 3 3 1 1 1 -2 -1 -1 -0 -0 -0 -0 -1 -1 0 1 1
4 4 4 5 5 5 5 5 6 6 5 3 3 2 1 -2 -3 -2 -1 -1 -1 -1 -1 -1 -0 0 1
2 3 3 3 4 3 3 3 3 3 4 3 4 3 2 1 -2 -3 -2 -2 -1 -1 -1 -1 0 0 0
2 2 2 2 2 2 1 1 1 -0 1 2 1 3 1 1 1 -2 -1 -1 -2 -2 -1 -1 -1 -0 0
1 1 0 1 -0 1 0 -1 -1 -3 -3 -1 -1 0 1 1 -0 0 -1 -1 -2 -1 -2 -1 -1 -0 -0
0 -0 -1 -1 -2 -2 -1 -2 -2 -3 -4 -4 -3 -2 -2 -1 -0 -0 -2 -1 -2 -2 -2 -2 -1 -1 -0
-0 -1 -2 -2 -2 -3 -3 -3 -3 -4 -4 -5 -4 -3 -8 -6 -2 -2 -0 -1 -2 -3 -2 -1 -1 -1 -0

GFSFLT2_925_temp_105.txt.gz
Temp
13 14 12 12 10 11 11 10 10 10 11 11 11 11 10 10 9 8 9 9 8 7 7 7 8 7 6
10 10 10 10 10 10 9 10 9 10 10 10 10 9 9 8 7 8 8 8 7 7 7 7 7 7 6
8 8 7 8 8 9 9 9 9 9 9 9 8 8 7 7 6 6 6 7 6 7 6 6 7 6 6
8 8 8 7 7 7 7 8 8 8 8 7 7 7 6 6 5 5 5 4 6 6 6 6 6 6 5
8 7 7 6 7 6 6 6 6 7 6 6 5 5 5 5 5 4 4 4 4 5 5 6 5 5 5
9 8 8 8 7 6 6 4 4 5 6 5 5 5 5 5 5 4 4 3 4 4 4 4 4 3 3
10 9 9 8 8 6 6 6 7 6 5 4 5 4 5 5 4 4 4 3 3 3 3 3 2 2 2
8 9 10 10 9 8 7 6 5 5 5 3 3 3 4 4 3 3 3 3 3 3 3 1 1 1 1
8 8 9 9 9 6 5 4 2 2 3 5 2 2 3 3 3 2 2 2 2 2 1 1 1 0 1
6 7 8 8 8 7 5 5 2 0 2 4 0 2 -0 1 1 1 1 1 1 1 0 0 0 0 1
5 5 6 6 6 6 5 6 4 3 4 4 1 0 0 -3 -1 -0 0 0 0 0 -0 -1 -0 0 1
3 4 4 5 5 5 5 5 6 8 6 5 3 2 0 -3 -2 -1 -1 -0 0 -0 -1 -1 -1 0 1
2 3 3 4 4 4 4 4 4 5 5 4 5 3 4 1 -2 -3 -3 -2 -1 -0 -1 -1 -0 -0 -1
2 2 3 3 2 2 0 2 1 -0 -0 2 4 5 2 2 2 -3 -1 -1 -1 -1 -1 -1 -1 -0 -0
1 1 1 1 1 0 0 -0 -0 -3 -3 -1 1 2 3 3 -1 -2 -2 -1 -3 -2 -2 -2 -1 -1 -0
0 0 0 -0 -0 -0 -0 -0 -1 -2 -3 -4 -2 -1 -1 -1 0 -2 -3 -2 -3 -3 -3 -3 -2 -1 -0
-0 -0 -0 -1 -1 -2 -1 -1 -2 -2 -3 -3 -4 -1 -1 -0 -3 -1 -1 -2 -3 -4 -3 -2 -1 -0 -0

GFSFLT2_925_temp_108.txt.gz
Temp
15 15 14 14 14 15 14 14 13 13 12 12 12 13 12 12 11 11 10 10 9 9 8 7 7 6 6
14 13 13 13 13 13 11 11 11 11 11 11 11 11 11 11 10 10 10 9 8 8 8 8 7 6 6
13 11 11 10 9 9 9 9 10 10 10 10 10 11 10 9 9 9 8 8 8 8 7 7 7 6 6
11 9 8 8 8 8 7 8 9 9 10 10 10 10 9 8 8 8 7 7 7 7 7 6 6 6 6
9 8 7 7 7 7 7 7 7 9 9 9 8 8 7 7 7 7 6 6 6 6 6 5 6 6 5
9 9 8 8 7 7 7 5 4 7 7 6 7 6 6 6 6 5 6 5 4 5 4 4 5 5 4
7 8 9 9 8 7 7 7 8 7 6 5 6 6 6 6 5 5 5 5 4 4 4 4 4 2 3
6 6 7 9 9 8 8 8 7 7 6 6 4 5 5 5 5 5 5 4 4 4 3 3 2 2 2
4 4 5 6 8 8 7 5 2 3 5 6 2 3 3 4 4 5 4 4 4 3 2 2 1 2 2
3 4 4 5 7 7 7 6 6 2 3 5 1 3 1 2 3 3 3 3 3 3 2 0 0 0 1
2 3 4 4 5 6 7 6 6 5 5 4 1 2 2 -2 0 2 2 2 1 1 1 0 -0 0 0
2 2 3 3 4 5 6 6 6 8 7 4 4 3 -0 -2 -2 -1 1 1 1 1 0 -0 -1 0 0
1 2 2 3 3 4 4 5 5 5 5 4 4 3 3 0 -1 -2 -1 -1 0 -0 -0 -1 -1 -0 -0
-0 0 1 2 2 2 2 2 2 2 2 2 3 3 2 1 1 -1 0 -1 -1 -1 -1 -1 -1 -1 -1
-1 -1 0 0 1 1 0 -0 1 -1 -1 0 -0 1 1 1 -0 -1 -1 -0 -1 -1 -1 -2 -2 -1 -1
-2 -1 -0 -0 -0 -1 -0 -0 1 -0 -2 -3 -1 -1 -2 -2 0 -0 -1 -1 -2 -2 -2 -2 -2 -2 -1
-2 -2 -1 -1 -1 -1 -1 -0 -0 -1 -2 -3 -2 -1 -0 0 -3 -1 -1 -2 -3 -3 -2 -1 -1 -2 -2

GFSFLT2_925_temp_111.txt.gz
Temp
14 15 14 14 15 15 15 14 15 15 15 15 16 15 14 14 14 13 13 12 11 10 10 9 8 7 7
14 13 12 13 14 14 14 14 14 15 15 15 15 13 13 13 13 13 12 11 10 10 10 8 8 7 7
12 12 12 12 12 12 12 13 13 14 13 13 13 12 11 12 12 12 11 10 10 10 9 8 8 8 7
8 10 10 10 10 10 10 10 10 10 10 10 11 11 11 11 11 10 9 9 10 9 8 8 8 7 7
7 8 8 7 8 9 8 8 8 8 9 10 10 10 10 10 10 9 9 9 9 8 7 7 7 7 6
5 7 8 8 8 8 7 6 5 7 8 8 9 9 9 9 9 9 9 8 7 7 7 6 6 6 6
4 5 6 7 7 8 7 7 8 8 7 7 7 7 8 8 8 8 8 7 6 6 5 5 4 5 5
3 3 4 4 4 5 7 7 7 7 7 7 6 7 7 7 7 7 7 6 6 5 4 4 4 4 4
1 2 3 3 4 4 5 6 5 5 6 7 5 5 5 6 6 6 6 6 5 5 4 4 4 3 3
0 0 1 2 3 4 4 5 6 3 5 5 3 4 2 3 5 5 5 5 4 4 4 3 3 2 2
-0 -0 1 2 2 3 4 4 5 6 7 6 3 3 3 -0 3 4 4 4 3 3 3 3 2 2 2
-0 0 1 1 2 2 2 3 3 5 6 7 5 4 3 -1 -0 2 3 3 3 3 2 2 1 0 1
-1 -1 -1 -1 -1 0 1 2 2 3 5 5 5 5 3 3 -1 -0 1 2 2 2 2 1 1 -0 -0
-1 -1 -2 -2 -2 -0 0 1 1 2 3 4 4 4 3 3 2 -0 2 0 1 1 1 1 0 0 0
-2 -2 -2 -2 -2 -1 -0 0 0 1 -0 1 2 2 2 2 0 0 0 0 0 0 0 -1 -1 -0 -0
-3 -3 -2 -2 -2 -1 -1 -1 -0 0 0 -1 -1 -0 -1 -1 0 0 -0 -0 -0 -1 -0 -1 -2 -1 -1
-3 -3 -3 -2 -2 -2 -1 -1 -1 -0 -0 -2 -1 0 0 1 -2 -0 -0 -1 -1 -1 -1 -1 -2 -1 -1

GFSFLT2_925_temp_114.txt.gz
Temp
11 12 13 14 14 14 14 14 15 14 14 14 16 16 16 16 15 15 15 14 14 13 11 11 10 9 10
8 9 10 12 13 13 14 13 13 14 14 14 14 15 15 15 14 14 14 13 14 12 11 10 10 8 9
7 7 8 9 10 11 11 12 12 13 13 13 13 13 13 13 13 13 13 12 13 12 11 10 10 9 9
5 7 7 8 8 9 10 11 11 11 11 11 11 11 11 11 12 12 12 12 13 11 11 10 9 9 9
4 5 6 6 7 8 8 8 9 9 10 10 10 10 11 11 11 11 11 12 11 11 10 9 9 9 8
3 3 4 4 5 5 6 7 5 10 8 9 8 9 10 10 11 11 11 11 10 9 9 8 9 8 7
2 2 2 3 3 3 3 4 6 8 7 7 8 8 9 9 10 10 10 10 9 9 8 8 8 7 7
0 0 1 1 1 2 3 3 4 5 6 6 8 7 8 9 9 9 9 9 9 8 8 7 7 6 7
-0 -0 0 0 0 1 2 2 3 4 6 6 6 6 6 7 7 8 9 9 8 8 8 6 6 5 4
-0 -0 -1 -1 -0 1 1 2 3 3 5 5 5 5 4 5 6 6 7 7 8 7 7 6 5 4 4
-1 -1 -1 -0 -0 -0 1 1 1 2 3 4 4 4 5 3 4 6 6 5 6 5 5 5 4 4 4
-1 -1 -1 -1 -1 -1 -2 -0 -0 1 2 2 3 3 3 0 1 4 5 5 5 4 4 3 3 3 3
-2 -2 -2 -2 -2 -2 -2 -2 -2 -0 1 2 2 3 4 4 3 2 3 4 4 4 3 3 2 2 1
-2 -2 -2 -3 -3 -3 -3 -2 -2 -1 -0 1 3 2 3 3 4 1 3 3 3 3 2 2 2 2 2
-2 -3 -3 -3 -3 -3 -2 -2 -2 -1 -0 0 1 1 2 3 2 2 2 2 2 2 1 1 1 1 1
-3 -3 -4 -4 -4 -3 -3 -2 -2 -2 -1 -0 -1 -1 -0 1 2 2 2 2 1 1 1 0 -1 -0 1
-4 -4 -4 -5 -4 -4 -3 -2 -2 -1 -1 -1 -1 -0 1 1 -0 1 1 1 0 -0 0 0 -0 -1 0

GFSFLT2_925_temp_117.txt.gz
Temp
7 8 8 9 10 11 13 14 15 15 15 15 14 16 16 16 16 16 16 16 15 15 15 13 12 11 11
6 6 6 7 8 9 10 12 13 13 14 14 14 14 16 13 15 15 15 15 15 13 13 13 12 11 10
4 4 5 7 7 8 9 9 10 10 11 12 13 14 14 14 13 14 13 13 13 13 13 13 12 11 10
3 3 4 5 6 6 6 6 7 8 9 10 10 11 11 11 12 13 12 13 13 12 12 13 12 10 9
2 3 3 3 3 3 3 4 5 8 8 9 9 9 10 11 11 12 12 11 11 12 12 12 11 9 9
1 1 1 1 1 1 2 3 4 6 4 5 6 8 9 10 10 10 10 10 10 11 12 11 9 9 9
-0 -1 -1 -0 -0 -0 0 1 2 3 3 4 5 6 7 8 9 9 10 10 10 10 10 10 9 8 9
-0 -0 -0 -0 -0 -0 -0 -0 1 1 3 4 5 6 7 8 8 8 9 9 9 9 10 10 9 8 8
-0 -0 -1 -1 -1 -1 -1 -1 0 1 2 3 4 5 6 7 8 8 8 9 9 10 9 9 8 8 7
-0 -0 -1 -1 -1 -1 -1 -1 -1 1 3 1 3 4 4 6 7 8 7 7 8 9 9 8 8 6 6
-1 -1 -1 -1 -1 -1 -2 -2 -2 -2 -1 0 1 1 3 4 5 6 6 6 6 7 8 7 6 7 6
-1 -1 -2 -2 -2 -2 -2 -2 -3 -3 -3 -2 -1 0 1 1 2 5 6 6 6 6 5 5 5 5 5
-2 -2 -2 -2 -2 -3 -3 -3 -2 -2 -2 -2 -2 -1 -0 1 2 3 4 5 5 5 4 4 3 3 3
-2 -3 -3 -3 -3 -3 -4 -4 -3 -3 -2 -2 -1 -1 -1 -0 1 2 3 4 4 4 4 4 3 3 3
-3 -3 -4 -4 -4 -4 -4 -4 -4 -3 -2 -2 -1 -1 -1 -1 0 1 3 3 4 3 3 2 2 3 3
-4 -4 -5 -5 -5 -5 -5 -5 -4 -4 -3 -2 -2 -2 -1 -1 -0 0 2 3 3 3 2 2 1 1 2
-5 -5 -5 -6 -5 -5 -5 -5 -4 -4 -3 -3 -2 -2 -1 -1 1 1 1 2 2 2 2 2 1 0 1

GFSFLT2_925_temp_120.txt.gz
Temp
5 6 6 6 7 8 8 10 10 11 12 13 14 15 15 14 15 15 15 15 15 16 16 15 15 14 13
3 4 4 5 5 6 6 7 8 9 9 11 12 13 13 13 14 14 13 13 15 15 15 14 15 14 13
2 2 3 3 4 4 5 5 6 7 8 9 10 10 11 12 13 13 13 13 13 13 13 14 14 14 13
1 2 2 2 1 1 2 2 3 6 6 7 8 8 9 10 10 11 12 12 12 12 13 13 13 13 13
0 0 0 0 0 -1 -0 0 1 5 4 4 5 6 7 8 8 10 11 11 11 12 12 12 12 12 12
-1 -1 -1 -1 -1 -1 -1 -1 0 3 1 1 2 4 4 6 7 8 8 9 10 10 11 11 11 12 12
-0 -1 -1 -0 -1 -1 -1 -1 -1 -1 -0 0 1 3 4 5 6 7 8 9 9 9 10 10 10 11 12
-1 -0 -0 -0 -1 -1 -1 -1 -1 -1 -0 0 1 2 4 4 6 7 7 8 9 9 10 10 10 10 9
-0 -1 -1 -1 -1 -1 -2 -2 -2 -1 0 -0 1 1 2 4 6 6 7 8 8 9 9 10 10 8 9
-0 -0 -1 -1 -1 -2 -2 -3 -2 -2 0 -2 -1 -0 1 3 3 4 4 5 7 8 8 8 9 9 8
-1 -1 -1 -1 -1 -2 -2 -2 -3 -4 -3 -3 -2 -3 -2 -0 1 2 3 4 5 7 8 8 9 9 7
-1 -2 -1 -2 -2 -2 -2 -3 -3 -3 -3 -3 -3 -3 -3 -2 -1 0 1 3 4 5 6 6 7 8 8
-3 -2 -2 -2 -3 -3 -3 -3 -4 -4 -4 -3 -3 -2 -2 -2 -2 -1 -0 1 2 3 5 5 5 4 4
-4 -3 -3 -3 -4 -4 -4 -4 -5 -5 -4 -3 -3 -2 -3 -2 -2 -1 -1 -0 2 3 4 4 5 4 4
-4 -4 -4 -4 -5 -5 -5 -5 -6 -5 -5 -5 -4 -3 -3 -2 -2 -1 -1 -0 0 2 2 3 3 4 4
-5 -5 -5 -5 -6 -6 -6 -6 -6 -6 -5 -5 -4 -4 -3 -2 -2 -2 -1 -1 0 1 2 3 3 3 3
-6 -6 -6 -6 -6 -6 -7 -7 -6 -6 -6 -5 -4 -4 -3 -2 -1 -0 -1 -1 -1 0 2 2 3 2 3